| time (UTC) | temp F | wind direction | speed MPH | gust MPH | rain 1hr in | rain 24hr in | rain mn in | humidity % | barometer mb |
| 20260901225904 | 69 | 30 | 3.0 | 4.0 | 0.00 | 0.00 | 0.00 | 87 | 1015.9 |
| 20260901225810 | 69 | 30 | 2.0 | 4.0 | 0.00 | 0.00 | 0.00 | 87 | 1015.9 |
| 20260901225603 | 69 | 30 | 2.0 | 5.0 | 0.00 | 0.00 | 0.00 | 87 | 1016.0 |
| 20260901225506 | 69 | 30 | 2.0 | 5.0 | 0.00 | 0.00 | 0.00 | 88 | 1015.9 |
| 20260901225403 | 69 | 30 | 2.0 | 5.0 | 0.00 | 0.00 | 0.00 | 88 | 1015.9 |
| 20260901225306 | 69 | 30 | 3.0 | 5.0 | 0.00 | 0.00 | 0.00 | 88 | 1016.0 |
| 20260901225103 | 69 | 30 | 3.0 | 5.0 | 0.00 | 0.00 | 0.00 | 88 | 1015.9 |
| 20260901225005 | 69 | 30 | 3.0 | 5.0 | 0.00 | 0.00 | 0.00 | 88 | 1015.9 |
| 20260901224906 | 69 | 30 | 3.0 | 5.0 | 0.00 | 0.00 | 0.00 | 88 | 1016.0 |
| 20260901224804 | 69 | 30 | 3.0 | 5.0 | 0.00 | 0.00 | 0.00 | 88 | 1015.9 |
| 20260901224606 | 69 | 30 | 4.0 | 5.0 | 0.00 | 0.00 | 0.00 | 88 | 1016.0 |
| 20260901224503 | 69 | 30 | 4.0 | 5.0 | 0.00 | 0.00 | 0.00 | 87 | 1016.0 |
| 20260901224403 | 69 | 30 | 3.0 | 5.0 | 0.00 | 0.00 | 0.00 | 87 | 1016.0 |
| 20260901224204 | 68 | 36 | 4.0 | 5.0 | 0.00 | 0.00 | 0.00 | 87 | 1016.0 |
| 20260901224104 | 68 | 53 | 4.0 | 5.0 | 0.00 | 0.00 | 0.00 | 87 | 1016.0 |
| 20260901224007 | 68 | 59 | 3.0 | 5.0 | 0.00 | 0.00 | 0.00 | 87 | 1016.0 |
| 20260901223706 | 68 | 350 | 3.0 | 5.0 | 0.00 | 0.00 | 0.00 | 87 | 1016.0 |
| 20260901223504 | 68 | 350 | 3.0 | 5.0 | 0.00 | 0.00 | 0.00 | 88 | 1016.0 |
| 20260901223406 | 69 | 331 | 2.0 | 5.0 | 0.00 | 0.00 | 0.00 | 88 | 1016.0 |
| 20260901223303 | 69 | 331 | 3.0 | 5.0 | 0.00 | 0.00 | 0.00 | 88 | 1015.9 |
| 20260901223106 | 68 | 346 | 3.0 | 5.0 | 0.00 | 0.00 | 0.00 | 88 | 1015.9 |
| 20260901222806 | 68 | 5 | 3.0 | 4.0 | 0.00 | 0.00 | 0.00 | 88 | 1015.9 |
| 20260901222506 | 68 | 228 | 1.0 | 2.0 | 0.00 | 0.00 | 0.00 | 89 | 1015.9 |
| 20260901222403 | 68 | 228 | 0.0 | 2.0 | 0.00 | 0.00 | 0.00 | 89 | 1015.9 |
| 20260901222306 | 68 | 228 | 0.0 | 2.0 | 0.00 | 0.00 | 0.00 | 89 | 1015.9 |
| 20260901222206 | 68 | 228 | 0.0 | 2.0 | 0.00 | 0.00 | 0.00 | 89 | 1015.9 |
| 20260901222104 | 68 | 228 | 0.0 | 2.0 | 0.00 | 0.00 | 0.00 | 89 | 1015.9 |
| 20260901222004 | 68 | 228 | 2.0 | 2.0 | 0.00 | 0.00 | 0.00 | 89 | 1015.9 |
| 20260901221906 | 68 | 228 | 1.0 | 3.0 | 0.00 | 0.00 | 0.00 | 89 | 1015.8 |
| 20260901221803 | 68 | 228 | 1.0 | 4.0 | 0.00 | 0.00 | 0.00 | 89 | 1015.8 |
| 20260901221703 | 68 | 225 | 0.0 | 4.0 | 0.00 | 0.00 | 0.00 | 88 | 1015.8 |
| 20260901221606 | 68 | 225 | 0.0 | 4.0 | 0.00 | 0.00 | 0.00 | 88 | 1015.8 |
| 20260901221503 | 68 | 225 | 0.0 | 4.0 | 0.00 | 0.00 | 0.00 | 89 | 1015.8 |
| 20260901221403 | 68 | 225 | 2.0 | 4.0 | 0.00 | 0.00 | 0.00 | 89 | 1015.8 |
| 20260901221306 | 68 | 228 | 0.0 | 5.0 | 0.00 | 0.00 | 0.00 | 89 | 1015.8 |
| 20260901221204 | 68 | 228 | 1.0 | 6.0 | 0.00 | 0.00 | 0.00 | 89 | 1015.8 |
| 20260901221103 | 68 | 204 | 2.0 | 6.0 | 0.00 | 0.00 | 0.00 | 89 | 1015.8 |
| 20260901220904 | 68 | 196 | 1.0 | 6.0 | 0.00 | 0.00 | 0.00 | 89 | 1015.8 |
| 20260901220804 | 68 | 196 | 1.0 | 6.0 | 0.00 | 0.00 | 0.00 | 89 | 1015.8 |
| 20260901220706 | 68 | 196 | 2.0 | 6.0 | 0.00 | 0.00 | 0.00 | 89 | 1015.7 |
| 20260901220603 | 68 | 194 | 3.0 | 6.0 | 0.00 | 0.00 | 0.00 | 90 | 1015.8 |
| 20260901220406 | 68 | 194 | 3.0 | 6.0 | 0.00 | 0.00 | 0.00 | 90 | 1015.8 |
| 20260901220203 | 68 | 200 | 4.0 | 6.0 | 0.00 | 0.00 | 0.00 | 90 | 1015.8 |
| 20260901220128 | 68 | 195 | 5.0 | 6.0 | 0.00 | 0.00 | 0.00 | 90 | 1015.8 |
| 20260901220022 | 68 | 195 | 6.0 | 6.0 | 0.00 | 0.00 | 0.00 | 90 | 1015.8 |
| 20260901215904 | 68 | 196 | 5.0 | 7.0 | 0.00 | 0.00 | 0.00 | 90 | 1015.8 |
| 20260901215804 | 68 | 192 | 5.0 | 7.0 | 0.00 | 0.00 | 0.00 | 90 | 1015.8 |
| 20260901215707 | 68 | 192 | 5.0 | 7.0 | 0.00 | 0.00 | 0.00 | 90 | 1015.8 |
| 20260901215605 | 68 | 190 | 5.0 | 7.0 | 0.00 | 0.00 | 0.00 | 90 | 1015.8 |
| 20260901215505 | 68 | 190 | 5.0 | 7.0 | 0.00 | 0.00 | 0.00 | 90 | 1015.8 |
| 20260901215407 | 68 | 188 | 5.0 | 7.0 | 0.00 | 0.00 | 0.00 | 90 | 1015.8 |
| 20260901215306 | 68 | 181 | 6.0 | 7.0 | 0.00 | 0.00 | 0.00 | 90 | 1015.8 |
| 20260901215204 | 68 | 184 | 6.0 | 7.0 | 0.00 | 0.00 | 0.00 | 90 | 1015.8 |
| 20260901215107 | 68 | 181 | 6.0 | 7.0 | 0.00 | 0.00 | 0.00 | 90 | 1015.8 |
| 20260901215005 | 68 | 186 | 5.0 | 7.0 | 0.00 | 0.00 | 0.00 | 90 | 1015.8 |
| 20260901214904 | 68 | 184 | 6.0 | 7.0 | 0.00 | 0.00 | 0.00 | 90 | 1015.8 |
| 20260901214705 | 68 | 186 | 7.0 | 7.0 | 0.00 | 0.00 | 0.00 | 90 | 1015.8 |
| 20260901214604 | 68 | 191 | 4.0 | 7.0 | 0.00 | 0.00 | 0.00 | 90 | 1015.8 |
| 20260901214507 | 68 | 185 | 6.0 | 7.0 | 0.00 | 0.00 | 0.00 | 90 | 1015.8 |
| 20260901214405 | 68 | 189 | 6.0 | 7.0 | 0.00 | 0.00 | 0.00 | 90 | 1015.8 |
| 20260901214305 | 68 | 188 | 6.0 | 6.0 | 0.00 | 0.00 | 0.00 | 90 | 1015.8 |
| 20260901214207 | 68 | 184 | 5.0 | 6.0 | 0.00 | 0.00 | 0.00 | 89 | 1015.8 |
| 20260901214104 | 68 | 199 | 5.0 | 5.0 | 0.00 | 0.00 | 0.00 | 89 | 1015.8 |
| 20260901213805 | 68 | 217 | 4.0 | 4.0 | 0.00 | 0.00 | 0.00 | 89 | 1015.8 |
| 20260901213704 | 68 | 217 | 3.0 | 4.0 | 0.00 | 0.00 | 0.00 | 89 | 1015.8 |
| 20260901213607 | 69 | 80 | 2.0 | 4.0 | 0.00 | 0.00 | 0.00 | 89 | 1015.8 |
| 20260901213504 | 69 | 80 | 2.0 | 4.0 | 0.00 | 0.00 | 0.00 | 89 | 1015.7 |
| 20260901213404 | 69 | 80 | 2.0 | 4.0 | 0.00 | 0.00 | 0.00 | 89 | 1015.8 |
| 20260901213307 | 69 | 80 | 2.0 | 4.0 | 0.00 | 0.00 | 0.00 | 89 | 1015.8 |
| 20260901213206 | 69 | 80 | 3.0 | 4.0 | 0.00 | 0.00 | 0.00 | 89 | 1015.8 |
| 20260901213011 | 69 | 80 | 3.0 | 3.0 | 0.00 | 0.00 | 0.00 | 89 | 1015.8 |
| 20260901212904 | 69 | 80 | 2.0 | 3.0 | 0.00 | 0.00 | 0.00 | 89 | 1015.8 |
| 20260901212804 | 69 | 80 | 1.0 | 3.0 | 0.00 | 0.00 | 0.00 | 89 | 1015.8 |
| 20260901212707 | 69 | 80 | 2.0 | 3.0 | 0.00 | 0.00 | 0.00 | 89 | 1015.8 |
| 20260901212604 | 69 | 80 | 1.0 | 3.0 | 0.00 | 0.00 | 0.00 | 89 | 1015.8 |
| 20260901212406 | 69 | 80 | 0.0 | 3.0 | 0.00 | 0.00 | 0.00 | 89 | 1015.8 |
| 20260901212306 | 69 | 80 | 2.0 | 3.0 | 0.00 | 0.00 | 0.00 | 89 | 1015.9 |
| 20260901212204 | 69 | 80 | 1.0 | 4.0 | 0.00 | 0.00 | 0.00 | 89 | 1015.8 |
| 20260901212107 | 69 | 80 | 0.0 | 4.0 | 0.00 | 0.00 | 0.00 | 89 | 1015.8 |
| 20260901212005 | 69 | 80 | 0.0 | 4.0 | 0.00 | 0.00 | 0.00 | 89 | 1015.8 |
| 20260901211904 | 69 | 80 | 0.0 | 4.0 | 0.00 | 0.00 | 0.00 | 89 | 1015.8 |
| 20260901211808 | 69 | 80 | 0.0 | 4.0 | 0.00 | 0.00 | 0.00 | 89 | 1015.8 |
| 20260901211704 | 69 | 80 | 1.0 | 4.0 | 0.00 | 0.00 | 0.00 | 89 | 1015.8 |
| 20260901211604 | 69 | 80 | 1.0 | 4.0 | 0.00 | 0.00 | 0.00 | 89 | 1015.8 |
| 20260901211404 | 69 | 80 | 2.0 | 4.0 | 0.00 | 0.00 | 0.00 | 89 | 1015.8 |
| 20260901211208 | 70 | 80 | 3.0 | 5.0 | 0.00 | 0.00 | 0.00 | 89 | 1015.7 |
| 20260901211104 | 70 | 80 | 5.0 | 5.0 | 0.00 | 0.00 | 0.00 | 89 | 1015.7 |
| 20260901211005 | 70 | 80 | 3.0 | 3.0 | 0.00 | 0.00 | 0.00 | 89 | 1015.7 |
| 20260901210907 | 70 | 80 | 2.0 | 3.0 | 0.00 | 0.00 | 0.00 | 89 | 1015.7 |
| 20260901210804 | 70 | 80 | 2.0 | 3.0 | 0.00 | 0.00 | 0.00 | 89 | 1015.7 |
| 20260901210607 | 70 | 80 | 2.0 | 3.0 | 0.00 | 0.00 | 0.00 | 89 | 1015.7 |
| 20260901210505 | 70 | 80 | 3.0 | 3.0 | 0.00 | 0.00 | 0.00 | 89 | 1015.7 |
| 20260901210404 | 70 | 80 | 3.0 | 3.0 | 0.00 | 0.00 | 0.00 | 89 | 1015.8 |
| 20260901210307 | 70 | 80 | 2.0 | 3.0 | 0.00 | 0.00 | 0.00 | 89 | 1015.7 |
| 20260901210204 | 70 | 80 | 2.0 | 3.0 | 0.00 | 0.00 | 0.00 | 88 | 1015.8 |
| 20260901210104 | 70 | 80 | 1.0 | 3.0 | 0.00 | 0.00 | 0.00 | 88 | 1015.7 |
| 20260901210012 | 70 | 80 | 1.0 | 3.0 | 0.00 | 0.00 | 0.00 | 88 | 1015.7 |
| 20260901205904 | 70 | 80 | 2.0 | 3.0 | 0.00 | 0.00 | 0.00 | 87 | 1015.7 |
| 20260901205805 | 70 | 80 | 2.0 | 2.0 | 0.00 | 0.00 | 0.00 | 87 | 1015.7 |
| 20260901205708 | 70 | 80 | 2.0 | 2.0 | 0.00 | 0.00 | 0.00 | 87 | 1015.7 |
| 20260901205604 | 70 | 80 | 2.0 | 2.0 | 0.00 | 0.00 | 0.00 | 88 | 1015.8 |
| 20260901205504 | 70 | 80 | 1.0 | 2.0 | 0.00 | 0.00 | 0.00 | 88 | 1015.7 |
| 20260901205407 | 70 | 80 | 1.0 | 1.0 | 0.00 | 0.00 | 0.00 | 87 | 1015.7 |
| 20260901205306 | 70 | 80 | 0.0 | 1.0 | 0.00 | 0.00 | 0.00 | 87 | 1015.7 |
| 20260901205204 | 70 | 80 | 0.0 | 2.0 | 0.00 | 0.00 | 0.00 | 87 | 1015.7 |
| 20260901205108 | 70 | 80 | 0.0 | 2.0 | 0.00 | 0.00 | 0.00 | 87 | 1015.7 |
| 20260901205010 | 70 | 80 | 1.0 | 2.0 | 0.00 | 0.00 | 0.00 | 87 | 1015.7 |
| 20260901204904 | 70 | 80 | 1.0 | 2.0 | 0.00 | 0.00 | 0.00 | 87 | 1015.7 |
| 20260901204807 | 70 | 80 | 1.0 | 2.0 | 0.00 | 0.00 | 0.00 | 87 | 1015.7 |
| 20260901204705 | 70 | 80 | 1.0 | 3.0 | 0.00 | 0.00 | 0.00 | 88 | 1015.7 |
| 20260901204604 | 70 | 80 | 1.0 | 3.0 | 0.00 | 0.00 | 0.00 | 87 | 1015.7 |
| 20260901204508 | 71 | 80 | 0.0 | 3.0 | 0.00 | 0.00 | 0.00 | 88 | 1015.7 |
| 20260901204304 | 71 | 80 | 1.0 | 3.0 | 0.00 | 0.00 | 0.00 | 88 | 1015.7 |
| 20260901204207 | 71 | 80 | 2.0 | 4.0 | 0.00 | 0.00 | 0.00 | 88 | 1015.7 |
| 20260901204005 | 71 | 80 | 1.0 | 4.0 | 0.00 | 0.00 | 0.00 | 88 | 1015.6 |
| 20260901203805 | 71 | 80 | 2.0 | 4.0 | 0.00 | 0.00 | 0.00 | 88 | 1015.6 |
| 20260901203704 | 71 | 80 | 2.0 | 4.0 | 0.00 | 0.00 | 0.00 | 88 | 1015.6 |
| 20260901203607 | 71 | 80 | 1.0 | 4.0 | 0.00 | 0.00 | 0.00 | 88 | 1015.6 |
| 20260901203504 | 71 | 80 | 0.0 | 4.0 | 0.00 | 0.00 | 0.00 | 88 | 1015.6 |
| 20260901203404 | 71 | 80 | 1.0 | 4.0 | 0.00 | 0.00 | 0.00 | 88 | 1015.6 |
| 20260901203307 | 71 | 80 | 2.0 | 4.0 | 0.00 | 0.00 | 0.00 | 88 | 1015.6 |
| 20260901203204 | 71 | 80 | 3.0 | 5.0 | 0.00 | 0.00 | 0.00 | 88 | 1015.5 |
| 20260901203104 | 71 | 80 | 3.0 | 5.0 | 0.00 | 0.00 | 0.00 | 88 | 1015.6 |
| 20260901202904 | 71 | 80 | 3.0 | 3.0 | 0.00 | 0.00 | 0.00 | 88 | 1015.6 |
| 20260901202804 | 71 | 80 | 2.0 | 3.0 | 0.00 | 0.00 | 0.00 | 88 | 1015.6 |
| 20260901202708 | 71 | 80 | 2.0 | 3.0 | 0.00 | 0.00 | 0.00 | 88 | 1015.6 |
| 20260901202505 | 71 | 80 | 2.0 | 3.0 | 0.00 | 0.00 | 0.00 | 88 | 1015.6 |
| 20260901202407 | 71 | 80 | 3.0 | 3.0 | 0.00 | 0.00 | 0.00 | 88 | 1015.6 |
| 20260901202306 | 71 | 80 | 2.0 | 3.0 | 0.00 | 0.00 | 0.00 | 88 | 1015.6 |
| 20260901202205 | 71 | 80 | 1.0 | 3.0 | 0.00 | 0.00 | 0.00 | 88 | 1015.6 |
| 20260901202104 | 71 | 80 | 2.0 | 3.0 | 0.00 | 0.00 | 0.00 | 88 | 1015.5 |
| 20260901201904 | 71 | 80 | 0.0 | 3.0 | 0.00 | 0.00 | 0.00 | 88 | 1015.6 |
| 20260901201805 | 71 | 80 | 1.0 | 3.0 | 0.00 | 0.00 | 0.00 | 88 | 1015.5 |
| 20260901201706 | 71 | 80 | 2.0 | 3.0 | 0.00 | 0.00 | 0.00 | 88 | 1015.6 |
| 20260901201605 | 71 | 80 | 2.0 | 3.0 | 0.00 | 0.00 | 0.00 | 87 | 1015.5 |
| 20260901201504 | 71 | 80 | 1.0 | 4.0 | 0.00 | 0.00 | 0.00 | 87 | 1015.6 |
| 20260901201407 | 71 | 80 | 2.0 | 4.0 | 0.00 | 0.00 | 0.00 | 87 | 1015.6 |
| 20260901201304 | 71 | 80 | 2.0 | 4.0 | 0.00 | 0.00 | 0.00 | 87 | 1015.6 |
| 20260901201206 | 71 | 80 | 2.0 | 4.0 | 0.00 | 0.00 | 0.00 | 87 | 1015.6 |
| 20260901201108 | 71 | 80 | 2.0 | 4.0 | 0.00 | 0.00 | 0.00 | 87 | 1015.6 |
| 20260901200904 | 71 | 80 | 1.0 | 4.0 | 0.00 | 0.00 | 0.00 | 87 | 1015.6 |
| 20260901200809 | 71 | 80 | 2.0 | 4.0 | 0.00 | 0.00 | 0.00 | 87 | 1015.6 |
| 20260901200705 | 71 | 80 | 2.0 | 4.0 | 0.00 | 0.00 | 0.00 | 87 | 1015.6 |
| 20260901200604 | 71 | 80 | 3.0 | 4.0 | 0.00 | 0.00 | 0.00 | 87 | 1015.6 |
| 20260901200405 | 72 | 80 | 5.0 | 5.0 | 0.00 | 0.00 | 0.00 | 86 | 1015.6 |
| 20260901200207 | 72 | 80 | 3.0 | 3.0 | 0.00 | 0.00 | 0.00 | 87 | 1015.6 |
| 20260901200121 | 72 | 80 | 2.0 | 3.0 | 0.00 | 0.00 | 0.00 | 87 | 1015.6 |
| 20260901200008 | 72 | 80 | 2.0 | 3.0 | 0.00 | 0.00 | 0.00 | 87 | 1015.6 |
| 20260901195908 | 72 | 80 | 2.0 | 3.0 | 0.00 | 0.00 | 0.00 | 87 | 1015.7 |
| 20260901195705 | 72 | 80 | 1.0 | 4.0 | 0.00 | 0.00 | 0.00 | 87 | 1015.7 |
| 20260901195608 | 72 | 80 | 0.0 | 4.0 | 0.00 | 0.00 | 0.00 | 87 | 1015.7 |
| 20260901195505 | 72 | 80 | 0.0 | 4.0 | 0.00 | 0.00 | 0.00 | 87 | 1015.7 |
| 20260901195405 | 72 | 80 | 1.0 | 4.0 | 0.00 | 0.00 | 0.00 | 87 | 1015.6 |
| 20260901195205 | 72 | 80 | 2.0 | 4.0 | 0.00 | 0.00 | 0.00 | 86 | 1015.6 |
| 20260901195106 | 72 | 80 | 2.0 | 4.0 | 0.00 | 0.00 | 0.00 | 86 | 1015.5 |
| 20260901195009 | 72 | 80 | 2.0 | 4.0 | 0.00 | 0.00 | 0.00 | 86 | 1015.5 |
| 20260901194905 | 72 | 80 | 3.0 | 4.0 | 0.00 | 0.00 | 0.00 | 86 | 1015.5 |
| 20260901194807 | 72 | 80 | 3.0 | 5.0 | 0.00 | 0.00 | 0.00 | 86 | 1015.5 |
| 20260901194708 | 72 | 80 | 3.0 | 5.0 | 0.00 | 0.00 | 0.00 | 86 | 1015.5 |
| 20260901194604 | 72 | 80 | 3.0 | 5.0 | 0.00 | 0.00 | 0.00 | 86 | 1015.5 |
| 20260901194505 | 72 | 80 | 3.0 | 3.0 | 0.00 | 0.00 | 0.00 | 86 | 1015.5 |
| 20260901194407 | 72 | 80 | 1.0 | 1.0 | 0.00 | 0.00 | 0.00 | 86 | 1015.5 |
| 20260901194305 | 72 | 80 | 0.0 | 0.0 | 0.00 | 0.00 | 0.00 | 86 | 1015.6 |
| 20260901194204 | 73 | 80 | 0.0 | 0.0 | 0.00 | 0.00 | 0.00 | 86 | 1015.6 |
| 20260901194108 | 73 | 80 | 0.0 | 0.0 | 0.00 | 0.00 | 0.00 | 85 | 1015.6 |
| 20260901193906 | 73 | 80 | 0.0 | 1.0 | 0.00 | 0.00 | 0.00 | 85 | 1015.6 |
| 20260901193808 | 73 | 80 | 0.0 | 2.0 | 0.00 | 0.00 | 0.00 | 85 | 1015.6 |
| 20260901193705 | 73 | 80 | 0.0 | 2.0 | 0.00 | 0.00 | 0.00 | 85 | 1015.7 |
| 20260901193604 | 73 | 80 | 0.0 | 2.0 | 0.00 | 0.00 | 0.00 | 85 | 1015.6 |
| 20260901193507 | 73 | 80 | 0.0 | 2.0 | 0.00 | 0.00 | 0.00 | 85 | 1015.7 |
| 20260901193406 | 73 | 80 | 0.0 | 2.0 | 0.00 | 0.00 | 0.00 | 85 | 1015.7 |
| 20260901193305 | 73 | 80 | 0.0 | 2.0 | 0.00 | 0.00 | 0.00 | 85 | 1015.7 |
| 20260901193207 | 73 | 80 | 0.0 | 2.0 | 0.00 | 0.00 | 0.00 | 85 | 1015.7 |
| 20260901193006 | 73 | 80 | 0.0 | 2.0 | 0.00 | 0.00 | 0.00 | 85 | 1015.6 |
| 20260901192804 | 73 | 80 | 1.0 | 2.0 | 0.00 | 0.00 | 0.00 | 84 | 1015.6 |
| 20260901192705 | 73 | 80 | 1.0 | 2.0 | 0.00 | 0.00 | 0.00 | 84 | 1015.6 |
| 20260901192607 | 73 | 80 | 1.0 | 2.0 | 0.00 | 0.00 | 0.00 | 84 | 1015.5 |
| 20260901192505 | 74 | 80 | 1.0 | 2.0 | 0.00 | 0.00 | 0.00 | 84 | 1015.5 |
| 20260901192419 | 74 | 80 | 2.0 | 2.0 | 0.00 | 0.00 | 0.00 | 84 | 1015.5 |
| 20260901192307 | 74 | 80 | 1.0 | 2.0 | 0.00 | 0.00 | 0.00 | 84 | 1015.5 |
| 20260901192204 | 74 | 80 | 0.0 | 2.0 | 0.00 | 0.00 | 0.00 | 84 | 1015.5 |
| 20260901192104 | 74 | 80 | 0.0 | 2.0 | 0.00 | 0.00 | 0.00 | 84 | 1015.4 |
| 20260901192009 | 74 | 80 | 0.0 | 2.0 | 0.00 | 0.00 | 0.00 | 84 | 1015.4 |
| 20260901191708 | 74 | 80 | 1.0 | 2.0 | 0.00 | 0.00 | 0.00 | 84 | 1015.4 |
| 20260901191605 | 74 | 80 | 0.0 | 2.0 | 0.00 | 0.00 | 0.00 | 83 | 1015.4 |
| 20260901191505 | 74 | 80 | 0.0 | 2.0 | 0.00 | 0.00 | 0.00 | 83 | 1015.4 |
| 20260901191410 | 75 | 80 | 0.0 | 2.0 | 0.00 | 0.00 | 0.00 | 83 | 1015.4 |
| 20260901191305 | 75 | 80 | 0.0 | 2.0 | 0.00 | 0.00 | 0.00 | 83 | 1015.4 |
| 20260901191205 | 75 | 80 | 1.0 | 2.0 | 0.00 | 0.00 | 0.00 | 83 | 1015.4 |
| 20260901191107 | 75 | 80 | 2.0 | 2.0 | 0.00 | 0.00 | 0.00 | 83 | 1015.4 |
| 20260901191007 | 75 | 80 | 1.0 | 2.0 | 0.00 | 0.00 | 0.00 | 82 | 1015.4 |
| 20260901190912 | 75 | 80 | 0.0 | 2.0 | 0.00 | 0.00 | 0.00 | 82 | 1015.4 |
| 20260901190807 | 75 | 80 | 1.0 | 2.0 | 0.00 | 0.00 | 0.00 | 82 | 1015.3 |
| 20260901190705 | 75 | 80 | 1.0 | 2.0 | 0.00 | 0.00 | 0.00 | 82 | 1015.3 |
| 20260901190607 | 75 | 80 | 1.0 | 2.0 | 0.00 | 0.00 | 0.00 | 82 | 1015.3 |
| 20260901190406 | 75 | 80 | 1.0 | 2.0 | 0.00 | 0.00 | 0.00 | 82 | 1015.3 |
| 20260901190305 | 76 | 80 | 1.0 | 1.0 | 0.00 | 0.00 | 0.00 | 81 | 1015.2 |
| 20260901190208 | 76 | 80 | 1.0 | 1.0 | 0.00 | 0.00 | 0.00 | 81 | 1015.2 |
| 20260901190010 | 76 | 80 | 0.0 | 2.0 | 0.00 | 0.00 | 0.00 | 81 | 1015.2 |
| 20260901185907 | 76 | 80 | 1.0 | 2.0 | 0.00 | 0.00 | 0.00 | 81 | 1015.1 |
| 20260901185805 | 76 | 80 | 0.0 | 3.0 | 0.00 | 0.00 | 0.00 | 80 | 1015.0 |
| 20260901185705 | 76 | 80 | 0.0 | 3.0 | 0.00 | 0.00 | 0.00 | 80 | 1015.0 |
| 20260901185608 | 76 | 80 | 0.0 | 3.0 | 0.00 | 0.00 | 0.00 | 80 | 1015.1 |
| 20260901185506 | 77 | 80 | 0.0 | 3.0 | 0.00 | 0.00 | 0.00 | 80 | 1015.0 |
| 20260901185403 | 77 | 80 | 1.0 | 3.0 | 0.00 | 0.00 | 0.00 | 79 | 1015.0 |
| 20260901185307 | 77 | 80 | 1.0 | 3.0 | 0.00 | 0.00 | 0.00 | 79 | 1015.0 |
| 20260901185205 | 77 | 80 | 1.0 | 3.0 | 0.00 | 0.00 | 0.00 | 78 | 1015.0 |
| 20260901185104 | 77 | 80 | 1.0 | 3.0 | 0.00 | 0.00 | 0.00 | 78 | 1015.0 |
| 20260901185007 | 77 | 80 | 1.0 | 3.0 | 0.00 | 0.00 | 0.00 | 78 | 1015.0 |
| 20260901184905 | 77 | 80 | 0.0 | 3.0 | 0.00 | 0.00 | 0.00 | 78 | 1015.0 |
| 20260901184708 | 78 | 80 | 3.0 | 3.0 | 0.00 | 0.00 | 0.00 | 78 | 1014.9 |
| 20260901184407 | 78 | 80 | 2.0 | 4.0 | 0.00 | 0.00 | 0.00 | 77 | 1014.8 |
| 20260901184305 | 78 | 80 | 1.0 | 4.0 | 0.00 | 0.00 | 0.00 | 77 | 1014.8 |
| 20260901184204 | 78 | 80 | 2.0 | 4.0 | 0.00 | 0.00 | 0.00 | 77 | 1014.8 |
| 20260901184005 | 78 | 80 | 2.0 | 4.0 | 0.00 | 0.00 | 0.00 | 77 | 1014.8 |
| 20260901183904 | 78 | 80 | 1.0 | 4.0 | 0.00 | 0.00 | 0.00 | 77 | 1014.8 |
| 20260901183806 | 78 | 80 | 2.0 | 4.0 | 0.00 | 0.00 | 0.00 | 77 | 1014.8 |
| 20260901183704 | 78 | 80 | 2.0 | 5.0 | 0.00 | 0.00 | 0.00 | 77 | 1014.8 |
| 20260901183604 | 78 | 80 | 3.0 | 5.0 | 0.00 | 0.00 | 0.00 | 77 | 1014.8 |
| 20260901183511 | 78 | 80 | 5.0 | 7.0 | 0.00 | 0.00 | 0.00 | 77 | 1014.8 |
| 20260901183305 | 79 | 80 | 3.0 | 7.0 | 0.00 | 0.00 | 0.00 | 77 | 1014.8 |
| 20260901183207 | 79 | 80 | 3.0 | 7.0 | 0.00 | 0.00 | 0.00 | 76 | 1014.7 |
| 20260901183105 | 79 | 80 | 2.0 | 8.0 | 0.00 | 0.00 | 0.00 | 76 | 1014.8 |
| 20260901183004 | 79 | 80 | 2.0 | 8.0 | 0.00 | 0.00 | 0.00 | 76 | 1014.8 |
| 20260901182804 | 79 | 80 | 5.0 | 8.0 | 0.00 | 0.00 | 0.00 | 76 | 1014.8 |
| 20260901182607 | 79 | 80 | 5.0 | 8.0 | 0.00 | 0.00 | 0.00 | 76 | 1014.8 |
| 20260901182504 | 79 | 80 | 6.0 | 8.0 | 0.00 | 0.00 | 0.00 | 76 | 1014.8 |
| 20260901182404 | 79 | 80 | 5.0 | 8.0 | 0.00 | 0.00 | 0.00 | 75 | 1014.8 |
| 20260901182308 | 79 | 80 | 5.0 | 8.0 | 0.00 | 0.00 | 0.00 | 75 | 1014.8 |
| 20260901182203 | 79 | 80 | 5.0 | 8.0 | 0.00 | 0.00 | 0.00 | 75 | 1014.8 |
| 20260901182007 | 79 | 69 | 4.0 | 7.0 | 0.00 | 0.00 | 0.00 | 74 | 1014.8 |
| 20260901181904 | 79 | 69 | 3.0 | 7.0 | 0.00 | 0.00 | 0.00 | 74 | 1014.8 |
| 20260901181804 | 79 | 69 | 4.0 | 7.0 | 0.00 | 0.00 | 0.00 | 74 | 1014.8 |
| 20260901181707 | 79 | 69 | 3.0 | 5.0 | 0.00 | 0.00 | 0.00 | 74 | 1014.7 |
| 20260901181606 | 79 | 69 | 3.0 | 5.0 | 0.00 | 0.00 | 0.00 | 74 | 1014.8 |
| 20260901181505 | 80 | 69 | 4.0 | 5.0 | 0.00 | 0.00 | 0.00 | 74 | 1014.8 |
| 20260901181304 | 80 | 69 | 2.0 | 9.0 | 0.00 | 0.00 | 0.00 | 74 | 1014.9 |
| 20260901181205 | 80 | 69 | 3.0 | 9.0 | 0.00 | 0.00 | 0.00 | 74 | 1014.9 |
| 20260901181005 | 80 | 57 | 2.0 | 9.0 | 0.00 | 0.00 | 0.00 | 74 | 1014.9 |
| 20260901180904 | 80 | 63 | 3.0 | 9.0 | 0.00 | 0.00 | 0.00 | 74 | 1014.9 |
| 20260901180806 | 80 | 63 | 3.0 | 9.0 | 0.00 | 0.00 | 0.00 | 74 | 1014.8 |
| 20260901180706 | 80 | 35 | 3.0 | 9.0 | 0.00 | 0.00 | 0.00 | 74 | 1014.8 |
| 20260901180507 | 80 | 78 | 4.0 | 9.0 | 0.00 | 0.00 | 0.00 | 73 | 1014.7 |
| 20260901180404 | 80 | 75 | 9.0 | 9.0 | 0.00 | 0.00 | 0.00 | 73 | 1014.6 |
| 20260901180305 | 80 | 68 | 5.0 | 9.0 | 0.00 | 0.00 | 0.00 | 73 | 1014.6 |
| 20260901180207 | 80 | 74 | 4.0 | 9.0 | 0.00 | 0.00 | 0.00 | 73 | 1014.6 |
| 20260901180129 | 80 | 81 | 5.0 | 9.0 | 0.00 | 0.00 | 0.00 | 72 | 1014.7 |
| 20260901180007 | 80 | 49 | 5.0 | 9.0 | 0.00 | 0.00 | 0.00 | 72 | 1014.6 |
| 20260901175907 | 80 | 26 | 6.0 | 9.0 | 0.00 | 0.00 | 0.00 | 72 | 1014.6 |
| 20260901175803 | 80 | 59 | 5.0 | 9.0 | 0.00 | 0.00 | 0.00 | 72 | 1014.6 |
| 20260901175703 | 81 | 71 | 7.0 | 9.0 | 0.00 | 0.00 | 0.00 | 72 | 1014.6 |
| 20260901175405 | 81 | 88 | 6.0 | 9.0 | 0.00 | 0.00 | 0.00 | 71 | 1014.6 |
| 20260901175307 | 81 | 74 | 7.0 | 10.0 | 0.00 | 0.00 | 0.00 | 71 | 1014.6 |
| 20260901175205 | 81 | 74 | 2.0 | 10.0 | 0.00 | 0.00 | 0.00 | 71 | 1014.6 |
| 20260901175009 | 81 | 74 | 5.0 | 10.0 | 0.00 | 0.00 | 0.00 | 71 | 1014.6 |
| 20260901174905 | 81 | 81 | 5.0 | 10.0 | 0.00 | 0.00 | 0.00 | 71 | 1014.6 |
| 20260901174804 | 81 | 70 | 5.0 | 10.0 | 0.00 | 0.00 | 0.00 | 71 | 1014.6 |
| 20260901174707 | 81 | 61 | 7.0 | 10.0 | 0.00 | 0.00 | 0.00 | 71 | 1014.6 |
| 20260901174505 | 81 | 119 | 7.0 | 10.0 | 0.00 | 0.00 | 0.00 | 70 | 1014.5 |
| 20260901174407 | 81 | 79 | 6.0 | 10.0 | 0.00 | 0.00 | 0.00 | 70 | 1014.5 |
| 20260901174304 | 81 | 75 | 10.0 | 12.0 | 0.00 | 0.00 | 0.00 | 70 | 1014.6 |
| 20260901174204 | 81 | 76 | 5.0 | 12.0 | 0.00 | 0.00 | 0.00 | 69 | 1014.6 |
| 20260901174106 | 81 | 74 | 4.0 | 12.0 | 0.00 | 0.00 | 0.00 | 69 | 1014.6 |
| 20260901174006 | 81 | 78 | 5.0 | 12.0 | 0.00 | 0.00 | 0.00 | 69 | 1014.6 |
| 20260901173807 | 82 | 76 | 7.0 | 12.0 | 0.00 | 0.00 | 0.00 | 69 | 1014.6 |
| 20260901173704 | 82 | 40 | 4.0 | 12.0 | 0.00 | 0.00 | 0.00 | 69 | 1014.6 |
| 20260901173605 | 82 | 57 | 8.0 | 12.0 | 0.00 | 0.00 | 0.00 | 69 | 1014.6 |
| 20260901173506 | 82 | 34 | 5.0 | 12.0 | 0.00 | 0.00 | 0.00 | 69 | 1014.6 |
| 20260901173305 | 82 | 67 | 10.0 | 12.0 | 0.00 | 0.00 | 0.00 | 68 | 1014.6 |
| 20260901173208 | 82 | 63 | 10.0 | 12.0 | 0.00 | 0.00 | 0.00 | 68 | 1014.6 |
| 20260901173104 | 82 | 60 | 7.0 | 12.0 | 0.00 | 0.00 | 0.00 | 67 | 1014.6 |
| 20260901173005 | 82 | 82 | 11.0 | 12.0 | 0.00 | 0.00 | 0.00 | 67 | 1014.6 |
| 20260901172906 | 82 | 71 | 5.0 | 12.0 | 0.00 | 0.00 | 0.00 | 67 | 1014.6 |
| 20260901172803 | 82 | 74 | 9.0 | 12.0 | 0.00 | 0.00 | 0.00 | 67 | 1014.6 |
| 20260901172607 | 83 | 79 | 6.0 | 12.0 | 0.00 | 0.00 | 0.00 | 66 | 1014.5 |
| 20260901172504 | 83 | 50 | 6.0 | 12.0 | 0.00 | 0.00 | 0.00 | 66 | 1014.6 |
| 20260901172404 | 83 | 56 | 8.0 | 12.0 | 0.00 | 0.00 | 0.00 | 65 | 1014.5 |
| 20260901172206 | 83 | 63 | 8.0 | 12.0 | 0.00 | 0.00 | 0.00 | 65 | 1014.6 |
| 20260901172104 | 83 | 85 | 11.0 | 13.0 | 0.00 | 0.00 | 0.00 | 65 | 1014.5 |
| 20260901172008 | 83 | 77 | 8.0 | 11.0 | 0.00 | 0.00 | 0.00 | 65 | 1014.5 |
| 20260901171804 | 83 | 74 | 7.0 | 11.0 | 0.00 | 0.00 | 0.00 | 64 | 1014.5 |
| 20260901171708 | 83 | 70 | 4.0 | 11.0 | 0.00 | 0.00 | 0.00 | 64 | 1014.5 |
| 20260901171505 | 84 | 73 | 7.0 | 11.0 | 0.00 | 0.00 | 0.00 | 64 | 1014.4 |
| 20260901171406 | 84 | 78 | 5.0 | 11.0 | 0.00 | 0.00 | 0.00 | 63 | 1014.5 |
| 20260901171304 | 84 | 39 | 3.0 | 11.0 | 0.00 | 0.00 | 0.00 | 63 | 1014.5 |
| 20260901171204 | 84 | 78 | 10.0 | 12.0 | 0.00 | 0.00 | 0.00 | 62 | 1014.5 |
| 20260901171005 | 84 | 82 | 5.0 | 12.0 | 0.00 | 0.00 | 0.00 | 62 | 1014.4 |
| 20260901170807 | 84 | 91 | 6.0 | 12.0 | 0.00 | 0.00 | 0.00 | 61 | 1014.4 |
| 20260901170704 | 84 | 78 | 4.0 | 13.0 | 0.00 | 0.00 | 0.00 | 61 | 1014.4 |
| 20260901170604 | 84 | 90 | 9.0 | 13.0 | 0.00 | 0.00 | 0.00 | 61 | 1014.4 |
| 20260901170405 | 84 | 77 | 11.0 | 13.0 | 0.00 | 0.00 | 0.00 | 60 | 1014.4 |
| 20260901170304 | 84 | 44 | 7.0 | 13.0 | 0.00 | 0.00 | 0.00 | 60 | 1014.4 |
| 20260901170207 | 85 | 67 | 5.0 | 13.0 | 0.00 | 0.00 | 0.00 | 59 | 1014.4 |
| 20260901170105 | 85 | 55 | 7.0 | 13.0 | 0.00 | 0.00 | 0.00 | 59 | 1014.4 |
| 20260901170007 | 85 | 72 | 11.0 | 13.0 | 0.00 | 0.00 | 0.00 | 59 | 1014.4 |
| 20260901165703 | 85 | 71 | 9.0 | 14.0 | 0.00 | 0.00 | 0.00 | 59 | 1014.4 |
| 20260901165607 | 85 | 75 | 8.0 | 14.0 | 0.00 | 0.00 | 0.00 | 59 | 1014.4 |
| 20260901165404 | 85 | 83 | 9.0 | 14.0 | 0.00 | 0.00 | 0.00 | 59 | 1014.5 |
| 20260901165308 | 85 | 56 | 7.0 | 14.0 | 0.00 | 0.00 | 0.00 | 59 | 1014.4 |
| 20260901165204 | 85 | 54 | 8.0 | 14.0 | 0.00 | 0.00 | 0.00 | 59 | 1014.5 |
| 20260901165106 | 85 | 88 | 10.0 | 14.0 | 0.00 | 0.00 | 0.00 | 59 | 1014.5 |
| 20260901165009 | 85 | 81 | 7.0 | 14.0 | 0.00 | 0.00 | 0.00 | 59 | 1014.5 |
| 20260901164904 | 85 | 78 | 5.0 | 14.0 | 0.00 | 0.00 | 0.00 | 59 | 1014.4 |
| 20260901164803 | 85 | 70 | 9.0 | 14.0 | 0.00 | 0.00 | 0.00 | 58 | 1014.4 |
| 20260901164706 | 85 | 88 | 14.0 | 14.0 | 0.00 | 0.00 | 0.00 | 58 | 1014.4 |
| 20260901164604 | 85 | 65 | 11.0 | 14.0 | 0.00 | 0.00 | 0.00 | 58 | 1014.5 |
| 20260901164407 | 85 | 69 | 9.0 | 13.0 | 0.00 | 0.00 | 0.00 | 57 | 1014.5 |
| 20260901164304 | 85 | 55 | 7.0 | 13.0 | 0.00 | 0.00 | 0.00 | 57 | 1014.5 |
| 20260901164204 | 85 | 69 | 7.0 | 13.0 | 0.00 | 0.00 | 0.00 | 57 | 1014.5 |
| 20260901164108 | 85 | 44 | 6.0 | 13.0 | 0.00 | 0.00 | 0.00 | 57 | 1014.5 |
| 20260901163904 | 86 | 39 | 8.0 | 13.0 | 0.00 | 0.00 | 0.00 | 57 | 1014.5 |
| 20260901163704 | 86 | 80 | 11.0 | 13.0 | 0.00 | 0.00 | 0.00 | 57 | 1014.5 |
| 20260901163604 | 86 | 86 | 8.0 | 13.0 | 0.00 | 0.00 | 0.00 | 56 | 1014.5 |
| 20260901163507 | 86 | 41 | 5.0 | 13.0 | 0.00 | 0.00 | 0.00 | 56 | 1014.6 |
| 20260901163404 | 86 | 67 | 3.0 | 13.0 | 0.00 | 0.00 | 0.00 | 56 | 1014.6 |
| 20260901163304 | 86 | 39 | 3.0 | 13.0 | 0.00 | 0.00 | 0.00 | 56 | 1014.5 |
| 20260901163208 | 86 | 90 | 5.0 | 13.0 | 0.00 | 0.00 | 0.00 | 56 | 1014.5 |
| 20260901163105 | 86 | 76 | 10.0 | 13.0 | 0.00 | 0.00 | 0.00 | 56 | 1014.6 |
| 20260901162907 | 86 | 74 | 7.0 | 11.0 | 0.00 | 0.00 | 0.00 | 55 | 1014.6 |
| 20260901162803 | 86 | 62 | 5.0 | 11.0 | 0.00 | 0.00 | 0.00 | 56 | 1014.7 |
| 20260901162704 | 86 | 82 | 6.0 | 11.0 | 0.00 | 0.00 | 0.00 | 56 | 1014.7 |
| 20260901162607 | 86 | 72 | 4.0 | 11.0 | 0.00 | 0.00 | 0.00 | 56 | 1014.6 |
| 20260901162504 | 86 | 84 | 3.0 | 13.0 | 0.00 | 0.00 | 0.00 | 57 | 1014.6 |
| 20260901162405 | 86 | 103 | 7.0 | 13.0 | 0.00 | 0.00 | 0.00 | 57 | 1014.7 |
| 20260901162205 | 86 | 96 | 6.0 | 13.0 | 0.00 | 0.00 | 0.00 | 57 | 1014.6 |
| 20260901162105 | 86 | 88 | 6.0 | 13.0 | 0.00 | 0.00 | 0.00 | 56 | 1014.6 |
| 20260901162008 | 86 | 84 | 9.0 | 13.0 | 0.00 | 0.00 | 0.00 | 56 | 1014.6 |
| 20260901161903 | 86 | 113 | 7.0 | 13.0 | 0.00 | 0.00 | 0.00 | 57 | 1014.6 |
| 20260901161805 | 86 | 93 | 6.0 | 13.0 | 0.00 | 0.00 | 0.00 | 56 | 1014.6 |
| 20260901161603 | 86 | 61 | 7.0 | 13.0 | 0.00 | 0.00 | 0.00 | 56 | 1014.6 |
| 20260901161505 | 86 | 94 | 13.0 | 13.0 | 0.00 | 0.00 | 0.00 | 56 | 1014.6 |
| 20260901161407 | 86 | 72 | 7.0 | 13.0 | 0.00 | 0.00 | 0.00 | 56 | 1014.6 |
| 20260901161305 | 86 | 79 | 9.0 | 13.0 | 0.00 | 0.00 | 0.00 | 55 | 1014.6 |
| 20260901161205 | 86 | 73 | 10.0 | 12.0 | 0.00 | 0.00 | 0.00 | 55 | 1014.6 |
| 20260901161107 | 86 | 74 | 9.0 | 12.0 | 0.00 | 0.00 | 0.00 | 56 | 1014.6 |
| 20260901161005 | 86 | 78 | 12.0 | 13.0 | 0.00 | 0.00 | 0.00 | 56 | 1014.6 |
| 20260901160905 | 87 | 70 | 7.0 | 14.0 | 0.00 | 0.00 | 0.00 | 56 | 1014.7 |
| 20260901160806 | 87 | 89 | 6.0 | 14.0 | 0.00 | 0.00 | 0.00 | 56 | 1014.6 |
| 20260901160705 | 87 | 106 | 8.0 | 14.0 | 0.00 | 0.00 | 0.00 | 56 | 1014.6 |
| 20260901160605 | 87 | 78 | 8.0 | 14.0 | 0.00 | 0.00 | 0.00 | 56 | 1014.6 |
| 20260901160507 | 87 | 63 | 7.0 | 14.0 | 0.00 | 0.00 | 0.00 | 56 | 1014.6 |
| 20260901160405 | 87 | 92 | 8.0 | 14.0 | 0.00 | 0.00 | 0.00 | 56 | 1014.6 |
| 20260901160305 | 87 | 58 | 10.0 | 14.0 | 0.00 | 0.00 | 0.00 | 55 | 1014.6 |
| 20260901160207 | 87 | 50 | 8.0 | 14.0 | 0.00 | 0.00 | 0.00 | 55 | 1014.6 |
| 20260901160121 | 87 | 67 | 7.0 | 14.0 | 0.00 | 0.00 | 0.00 | 55 | 1014.6 |
| 20260901160007 | 87 | 19 | 6.0 | 14.0 | 0.00 | 0.00 | 0.00 | 55 | 1014.7 |
| 20260901155906 | 87 | 45 | 6.0 | 13.0 | 0.00 | 0.00 | 0.00 | 54 | 1014.7 |
| 20260901155805 | 87 | 63 | 7.0 | 13.0 | 0.00 | 0.00 | 0.00 | 54 | 1014.7 |
| 20260901155607 | 87 | 55 | 5.0 | 12.0 | 0.00 | 0.00 | 0.00 | 54 | 1014.7 |
| 20260901155505 | 87 | 36 | 6.0 | 12.0 | 0.00 | 0.00 | 0.00 | 55 | 1014.6 |
| 20260901155403 | 87 | 96 | 10.0 | 14.0 | 0.00 | 0.00 | 0.00 | 55 | 1014.6 |
| 20260901155308 | 87 | 76 | 5.0 | 14.0 | 0.00 | 0.00 | 0.00 | 55 | 1014.6 |
| 20260901155104 | 87 | 95 | 5.0 | 14.0 | 0.00 | 0.00 | 0.00 | 55 | 1014.6 |
| 20260901155008 | 87 | 63 | 7.0 | 14.0 | 0.00 | 0.00 | 0.00 | 55 | 1014.6 |
| 20260901154904 | 87 | 73 | 11.0 | 14.0 | 0.00 | 0.00 | 0.00 | 54 | 1014.6 |
| 20260901154803 | 87 | 87 | 5.0 | 14.0 | 0.00 | 0.00 | 0.00 | 55 | 1014.7 |
| 20260901154707 | 87 | 85 | 7.0 | 14.0 | 0.00 | 0.00 | 0.00 | 55 | 1014.7 |
| 20260901154604 | 87 | 113 | 5.0 | 14.0 | 0.00 | 0.00 | 0.00 | 55 | 1014.7 |
| 20260901154505 | 87 | 82 | 9.0 | 14.0 | 0.00 | 0.00 | 0.00 | 55 | 1014.7 |
| 20260901154407 | 87 | 78 | 14.0 | 14.0 | 0.00 | 0.00 | 0.00 | 55 | 1014.7 |
| 20260901154305 | 87 | 73 | 9.0 | 14.0 | 0.00 | 0.00 | 0.00 | 55 | 1014.8 |
| 20260901154205 | 87 | 77 | 10.0 | 14.0 | 0.00 | 0.00 | 0.00 | 55 | 1014.7 |
| 20260901154107 | 87 | 76 | 11.0 | 14.0 | 0.00 | 0.00 | 0.00 | 55 | 1014.7 |
| 20260901154005 | 87 | 74 | 10.0 | 14.0 | 0.00 | 0.00 | 0.00 | 55 | 1014.7 |
| 20260901153905 | 87 | 100 | 9.0 | 14.0 | 0.00 | 0.00 | 0.00 | 55 | 1014.7 |
| 20260901153807 | 87 | 81 | 6.0 | 16.0 | 0.00 | 0.00 | 0.00 | 55 | 1014.7 |
| 20260901153705 | 87 | 64 | 8.0 | 16.0 | 0.00 | 0.00 | 0.00 | 54 | 1014.6 |
| 20260901153605 | 87 | 55 | 10.0 | 16.0 | 0.00 | 0.00 | 0.00 | 54 | 1014.6 |
| 20260901153508 | 87 | 32 | 11.0 | 16.0 | 0.00 | 0.00 | 0.00 | 54 | 1014.6 |
| 20260901153404 | 87 | 39 | 10.0 | 16.0 | 0.00 | 0.00 | 0.00 | 54 | 1014.7 |
| 20260901153304 | 88 | 53 | 8.0 | 16.0 | 0.00 | 0.00 | 0.00 | 54 | 1014.7 |
| 20260901153206 | 88 | 41 | 9.0 | 16.0 | 0.00 | 0.00 | 0.00 | 54 | 1014.6 |
| 20260901153105 | 88 | 43 | 11.0 | 16.0 | 0.00 | 0.00 | 0.00 | 54 | 1014.6 |
| 20260901153005 | 88 | 66 | 10.0 | 16.0 | 0.00 | 0.00 | 0.00 | 53 | 1014.7 |
| 20260901152906 | 88 | 62 | 9.0 | 16.0 | 0.00 | 0.00 | 0.00 | 53 | 1014.6 |
| 20260901152805 | 88 | 46 | 13.0 | 16.0 | 0.00 | 0.00 | 0.00 | 54 | 1014.6 |
| 20260901152704 | 88 | 74 | 9.0 | 17.0 | 0.00 | 0.00 | 0.00 | 54 | 1014.6 |
| 20260901152608 | 88 | 71 | 11.0 | 17.0 | 0.00 | 0.00 | 0.00 | 54 | 1014.6 |
| 20260901152403 | 88 | 78 | 9.0 | 17.0 | 0.00 | 0.00 | 0.00 | 54 | 1014.6 |
| 20260901152307 | 88 | 78 | 12.0 | 17.0 | 0.00 | 0.00 | 0.00 | 54 | 1014.6 |
| 20260901152203 | 88 | 84 | 13.0 | 17.0 | 0.00 | 0.00 | 0.00 | 53 | 1014.6 |
| 20260901152008 | 88 | 45 | 8.0 | 17.0 | 0.00 | 0.00 | 0.00 | 53 | 1014.6 |
| 20260901151904 | 88 | 55 | 7.0 | 17.0 | 0.00 | 0.00 | 0.00 | 54 | 1014.6 |
| 20260901151804 | 88 | 84 | 8.0 | 17.0 | 0.00 | 0.00 | 0.00 | 54 | 1014.6 |
| 20260901151707 | 88 | 80 | 17.0 | 17.0 | 0.00 | 0.00 | 0.00 | 54 | 1014.7 |
| 20260901151604 | 88 | 55 | 9.0 | 16.0 | 0.00 | 0.00 | 0.00 | 54 | 1014.7 |
| 20260901151505 | 88 | 70 | 10.0 | 17.0 | 0.00 | 0.00 | 0.00 | 54 | 1014.7 |
| 20260901151407 | 88 | 72 | 14.0 | 16.0 | 0.00 | 0.00 | 0.00 | 53 | 1014.7 |
| 20260901151203 | 88 | 24 | 8.0 | 16.0 | 0.00 | 0.00 | 0.00 | 54 | 1014.6 |
| 20260901151107 | 88 | 84 | 14.0 | 16.0 | 0.00 | 0.00 | 0.00 | 54 | 1014.6 |
| 20260901151005 | 88 | 38 | 7.0 | 16.0 | 0.00 | 0.00 | 0.00 | 53 | 1014.6 |
| 20260901150903 | 88 | 28 | 8.0 | 16.0 | 0.00 | 0.00 | 0.00 | 53 | 1014.6 |
| 20260901150806 | 88 | 56 | 11.0 | 16.0 | 0.00 | 0.00 | 0.00 | 53 | 1014.6 |
| 20260901150704 | 88 | 5 | 7.0 | 17.0 | 0.00 | 0.00 | 0.00 | 53 | 1014.6 |
| 20260901150603 | 88 | 28 | 10.0 | 17.0 | 0.00 | 0.00 | 0.00 | 53 | 1014.6 |
| 20260901150509 | 88 | 44 | 6.0 | 17.0 | 0.00 | 0.00 | 0.00 | 53 | 1014.6 |
| 20260901150404 | 88 | 59 | 11.0 | 17.0 | 0.00 | 0.00 | 0.00 | 54 | 1014.6 |
| 20260901150207 | 88 | 46 | 12.0 | 16.0 | 0.00 | 0.00 | 0.00 | 54 | 1014.7 |
| 20260901150104 | 88 | 55 | 11.0 | 16.0 | 0.00 | 0.00 | 0.00 | 54 | 1014.6 |
| 20260901150007 | 88 | 33 | 9.0 | 16.0 | 0.00 | 0.00 | 0.00 | 55 | 1014.6 |
| 20260901145907 | 88 | 5 | 6.0 | 16.0 | 0.00 | 0.00 | 0.00 | 54 | 1014.6 |
| 20260901145805 | 88 | 92 | 8.0 | 17.0 | 0.00 | 0.00 | 0.00 | 54 | 1014.6 |
| 20260901145705 | 88 | 51 | 7.0 | 16.0 | 0.00 | 0.00 | 0.00 | 54 | 1014.6 |
| 20260901145606 | 88 | 36 | 10.0 | 16.0 | 0.00 | 0.00 | 0.00 | 54 | 1014.6 |
| 20260901145504 | 88 | 63 | 10.0 | 16.0 | 0.00 | 0.00 | 0.00 | 54 | 1014.6 |
| 20260901145404 | 88 | 36 | 8.0 | 16.0 | 0.00 | 0.00 | 0.00 | 53 | 1014.6 |
| 20260901145307 | 88 | 53 | 11.0 | 16.0 | 0.00 | 0.00 | 0.00 | 53 | 1014.6 |
| 20260901145204 | 88 | 40 | 14.0 | 16.0 | 0.00 | 0.00 | 0.00 | 53 | 1014.6 |
| 20260901145104 | 88 | 29 | 11.0 | 16.0 | 0.00 | 0.00 | 0.00 | 53 | 1014.6 |
| 20260901145008 | 89 | 28 | 15.0 | 16.0 | 0.00 | 0.00 | 0.00 | 53 | 1014.6 |
| 20260901144903 | 89 | 43 | 9.0 | 16.0 | 0.00 | 0.00 | 0.00 | 53 | 1014.6 |
| 20260901144706 | 89 | 25 | 14.0 | 14.0 | 0.00 | 0.00 | 0.00 | 53 | 1014.6 |
| 20260901144604 | 89 | 62 | 13.0 | 14.0 | 0.00 | 0.00 | 0.00 | 53 | 1014.6 |
| 20260901144504 | 89 | 55 | 9.0 | 16.0 | 0.00 | 0.00 | 0.00 | 53 | 1014.6 |
| 20260901144407 | 89 | 42 | 7.0 | 16.0 | 0.00 | 0.00 | 0.00 | 54 | 1014.5 |
| 20260901144304 | 89 | 36 | 6.0 | 16.0 | 0.00 | 0.00 | 0.00 | 53 | 1014.6 |
| 20260901144205 | 89 | 49 | 12.0 | 16.0 | 0.00 | 0.00 | 0.00 | 53 | 1014.5 |
| 20260901144106 | 89 | 65 | 10.0 | 16.0 | 0.00 | 0.00 | 0.00 | 53 | 1014.5 |
| 20260901144004 | 89 | 46 | 11.0 | 17.0 | 0.00 | 0.00 | 0.00 | 54 | 1014.5 |
| 20260901143903 | 89 | 65 | 13.0 | 17.0 | 0.00 | 0.00 | 0.00 | 53 | 1014.5 |
| 20260901143807 | 89 | 73 | 10.0 | 17.0 | 0.00 | 0.00 | 0.00 | 54 | 1014.6 |
| 20260901143703 | 89 | 88 | 10.0 | 17.0 | 0.00 | 0.00 | 0.00 | 53 | 1014.6 |
| 20260901143508 | 89 | 23 | 14.0 | 17.0 | 0.00 | 0.00 | 0.00 | 52 | 1014.6 |
| 20260901143404 | 89 | 78 | 8.0 | 17.0 | 0.00 | 0.00 | 0.00 | 52 | 1014.7 |
| 20260901143304 | 89 | 64 | 10.0 | 17.0 | 0.00 | 0.00 | 0.00 | 52 | 1014.6 |
| 20260901143207 | 89 | 97 | 6.0 | 17.0 | 0.00 | 0.00 | 0.00 | 51 | 1014.7 |
| 20260901143104 | 89 | 61 | 11.0 | 17.0 | 0.00 | 0.00 | 0.00 | 52 | 1014.7 |
| 20260901142907 | 89 | 63 | 8.0 | 13.0 | 0.00 | 0.00 | 0.00 | 51 | 1014.7 |
| 20260901142804 | 89 | 40 | 5.0 | 13.0 | 0.00 | 0.00 | 0.00 | 51 | 1014.7 |
| 20260901142704 | 89 | 43 | 7.0 | 13.0 | 0.00 | 0.00 | 0.00 | 52 | 1014.7 |
| 20260901142606 | 89 | 31 | 8.0 | 14.0 | 0.00 | 0.00 | 0.00 | 51 | 1014.7 |
| 20260901142504 | 89 | 71 | 10.0 | 13.0 | 0.00 | 0.00 | 0.00 | 52 | 1014.7 |
| 20260901142404 | 89 | 59 | 9.0 | 15.0 | 0.00 | 0.00 | 0.00 | 52 | 1014.6 |
| 20260901142307 | 89 | 51 | 12.0 | 15.0 | 0.00 | 0.00 | 0.00 | 51 | 1014.6 |
| 20260901142203 | 89 | 24 | 9.0 | 15.0 | 0.00 | 0.00 | 0.00 | 51 | 1014.6 |
| 20260901142009 | 90 | 58 | 8.0 | 15.0 | 0.00 | 0.00 | 0.00 | 50 | 1014.6 |
| 20260901141707 | 90 | 53 | 8.0 | 15.0 | 0.00 | 0.00 | 0.00 | 51 | 1014.6 |
| 20260901141605 | 90 | 65 | 8.0 | 15.0 | 0.00 | 0.00 | 0.00 | 51 | 1014.6 |
| 20260901141407 | 90 | 48 | 15.0 | 16.0 | 0.00 | 0.00 | 0.00 | 51 | 1014.6 |
| 20260901141203 | 90 | 74 | 11.0 | 15.0 | 0.00 | 0.00 | 0.00 | 53 | 1014.6 |
| 20260901141005 | 90 | 42 | 8.0 | 18.0 | 0.00 | 0.00 | 0.00 | 52 | 1014.6 |
| 20260901140906 | 90 | 101 | 7.0 | 18.0 | 0.00 | 0.00 | 0.00 | 51 | 1014.6 |
| 20260901140807 | 90 | 50 | 12.0 | 18.0 | 0.00 | 0.00 | 0.00 | 52 | 1014.6 |
| 20260901140704 | 90 | 59 | 11.0 | 18.0 | 0.00 | 0.00 | 0.00 | 52 | 1014.5 |
| 20260901140605 | 90 | 84 | 9.0 | 18.0 | 0.00 | 0.00 | 0.00 | 53 | 1014.5 |
| 20260901140508 | 90 | 74 | 13.0 | 18.0 | 0.00 | 0.00 | 0.00 | 53 | 1014.6 |
| 20260901140403 | 89 | 62 | 9.0 | 18.0 | 0.00 | 0.00 | 0.00 | 54 | 1014.6 |
| 20260901140306 | 89 | 76 | 10.0 | 18.0 | 0.00 | 0.00 | 0.00 | 54 | 1014.6 |
| 20260901140209 | 89 | 82 | 10.0 | 18.0 | 0.00 | 0.00 | 0.00 | 53 | 1014.6 |
| 20260901140120 | 89 | 51 | 9.0 | 18.0 | 0.00 | 0.00 | 0.00 | 52 | 1014.6 |
| 20260901140008 | 89 | 78 | 12.0 | 18.0 | 0.00 | 0.00 | 0.00 | 52 | 1014.6 |
| 20260901135906 | 89 | 40 | 13.0 | 16.0 | 0.00 | 0.00 | 0.00 | 52 | 1014.5 |
| 20260901135805 | 89 | 50 | 10.0 | 17.0 | 0.00 | 0.00 | 0.00 | 52 | 1014.5 |
| 20260901135703 | 89 | 55 | 13.0 | 17.0 | 0.00 | 0.00 | 0.00 | 54 | 1014.6 |
| 20260901135608 | 89 | 77 | 11.0 | 17.0 | 0.00 | 0.00 | 0.00 | 54 | 1014.6 |
| 20260901135504 | 89 | 68 | 11.0 | 17.0 | 0.00 | 0.00 | 0.00 | 53 | 1014.6 |
| 20260901135404 | 89 | 67 | 14.0 | 17.0 | 0.00 | 0.00 | 0.00 | 53 | 1014.7 |
| 20260901135306 | 89 | 44 | 8.0 | 17.0 | 0.00 | 0.00 | 0.00 | 53 | 1014.7 |
| 20260901135204 | 89 | 34 | 8.0 | 17.0 | 0.00 | 0.00 | 0.00 | 53 | 1014.6 |
| 20260901135105 | 89 | 20 | 9.0 | 17.0 | 0.00 | 0.00 | 0.00 | 53 | 1014.6 |
| 20260901134904 | 89 | 22 | 12.0 | 17.0 | 0.00 | 0.00 | 0.00 | 52 | 1014.5 |
| 20260901134805 | 90 | 39 | 12.0 | 15.0 | 0.00 | 0.00 | 0.00 | 53 | 1014.5 |
| 20260901134706 | 90 | 38 | 11.0 | 15.0 | 0.00 | 0.00 | 0.00 | 53 | 1014.6 |
| 20260901134604 | 90 | 44 | 9.0 | 15.0 | 0.00 | 0.00 | 0.00 | 53 | 1014.6 |
| 20260901134505 | 90 | 26 | 8.0 | 15.0 | 0.00 | 0.00 | 0.00 | 53 | 1014.5 |
| 20260901134406 | 90 | 49 | 9.0 | 17.0 | 0.00 | 0.00 | 0.00 | 53 | 1014.6 |
| 20260901134304 | 90 | 32 | 8.0 | 17.0 | 0.00 | 0.00 | 0.00 | 53 | 1014.5 |
| 20260901134204 | 89 | 38 | 11.0 | 17.0 | 0.00 | 0.00 | 0.00 | 54 | 1014.5 |
| 20260901134106 | 89 | 31 | 6.0 | 17.0 | 0.00 | 0.00 | 0.00 | 54 | 1014.5 |
| 20260901134004 | 89 | 26 | 10.0 | 17.0 | 0.00 | 0.00 | 0.00 | 53 | 1014.6 |
| 20260901133904 | 90 | 38 | 9.0 | 17.0 | 0.00 | 0.00 | 0.00 | 53 | 1014.5 |
| 20260901133807 | 90 | 34 | 10.0 | 17.0 | 0.00 | 0.00 | 0.00 | 53 | 1014.6 |
| 20260901133603 | 90 | 48 | 6.0 | 17.0 | 0.00 | 0.00 | 0.00 | 54 | 1014.6 |
| 20260901133508 | 90 | 69 | 11.0 | 17.0 | 0.00 | 0.00 | 0.00 | 54 | 1014.5 |
| 20260901133406 | 90 | 71 | 14.0 | 17.0 | 0.00 | 0.00 | 0.00 | 54 | 1014.5 |
| 20260901133304 | 90 | 73 | 15.0 | 15.0 | 0.00 | 0.00 | 0.00 | 54 | 1014.5 |
| 20260901133206 | 90 | 48 | 11.0 | 15.0 | 0.00 | 0.00 | 0.00 | 54 | 1014.6 |
| 20260901133105 | 90 | 65 | 10.0 | 15.0 | 0.00 | 0.00 | 0.00 | 53 | 1014.5 |
| 20260901132906 | 90 | 53 | 9.0 | 15.0 | 0.00 | 0.00 | 0.00 | 54 | 1014.5 |
| 20260901132803 | 90 | 60 | 9.0 | 15.0 | 0.00 | 0.00 | 0.00 | 55 | 1014.6 |
| 20260901132704 | 90 | 84 | 6.0 | 15.0 | 0.00 | 0.00 | 0.00 | 54 | 1014.6 |
| 20260901132609 | 90 | 55 | 9.0 | 15.0 | 0.00 | 0.00 | 0.00 | 54 | 1014.5 |
| 20260901132504 | 90 | 70 | 13.0 | 16.0 | 0.00 | 0.00 | 0.00 | 53 | 1014.5 |
| 20260901132404 | 90 | 31 | 7.0 | 15.0 | 0.00 | 0.00 | 0.00 | 54 | 1014.5 |
| 20260901132307 | 90 | 55 | 8.0 | 15.0 | 0.00 | 0.00 | 0.00 | 54 | 1014.6 |
| 20260901132205 | 90 | 42 | 12.0 | 15.0 | 0.00 | 0.00 | 0.00 | 54 | 1014.5 |
| 20260901132103 | 90 | 51 | 7.0 | 17.0 | 0.00 | 0.00 | 0.00 | 54 | 1014.5 |
| 20260901132009 | 90 | 63 | 12.0 | 17.0 | 0.00 | 0.00 | 0.00 | 55 | 1014.5 |
| 20260901131904 | 89 | 64 | 10.0 | 17.0 | 0.00 | 0.00 | 0.00 | 56 | 1014.6 |
| 20260901131803 | 89 | 89 | 7.0 | 17.0 | 0.00 | 0.00 | 0.00 | 55 | 1014.5 |
| 20260901131707 | 89 | 42 | 4.0 | 17.0 | 0.00 | 0.00 | 0.00 | 54 | 1014.6 |
| 20260901131603 | 90 | 63 | 7.0 | 17.0 | 0.00 | 0.00 | 0.00 | 53 | 1014.6 |
| 20260901131504 | 90 | 36 | 9.0 | 17.0 | 0.00 | 0.00 | 0.00 | 53 | 1014.7 |
| 20260901131106 | 90 | 33 | 16.0 | 17.0 | 0.00 | 0.00 | 0.00 | 53 | 1014.6 |
| 20260901131006 | 90 | 61 | 4.0 | 16.0 | 0.00 | 0.00 | 0.00 | 55 | 1014.6 |
| 20260901130806 | 90 | 20 | 15.0 | 16.0 | 0.00 | 0.00 | 0.00 | 54 | 1014.6 |
| 20260901130705 | 90 | 55 | 4.0 | 17.0 | 0.00 | 0.00 | 0.00 | 55 | 1014.7 |
| 20260901130509 | 90 | 44 | 8.0 | 17.0 | 0.00 | 0.00 | 0.00 | 54 | 1014.7 |
| 20260901130404 | 90 | 58 | 7.0 | 17.0 | 0.00 | 0.00 | 0.00 | 54 | 1014.7 |
| 20260901130305 | 90 | 62 | 4.0 | 17.0 | 0.00 | 0.00 | 0.00 | 54 | 1014.7 |
| 20260901130206 | 90 | 52 | 8.0 | 17.0 | 0.00 | 0.00 | 0.00 | 56 | 1014.7 |
| 20260901130105 | 90 | 65 | 8.0 | 17.0 | 0.00 | 0.00 | 0.00 | 54 | 1014.7 |
| 20260901130007 | 90 | 48 | 3.0 | 17.0 | 0.00 | 0.00 | 0.00 | 54 | 1014.7 |
| 20260901125906 | 90 | 30 | 10.0 | 17.0 | 0.00 | 0.00 | 0.00 | 53 | 1014.7 |
| 20260901125804 | 90 | 30 | 13.0 | 17.0 | 0.00 | 0.00 | 0.00 | 53 | 1014.6 |
| 20260901125607 | 91 | 24 | 12.0 | 16.0 | 0.00 | 0.00 | 0.00 | 52 | 1014.7 |
| 20260901125504 | 91 | 51 | 8.0 | 16.0 | 0.00 | 0.00 | 0.00 | 52 | 1014.8 |
| 20260901125309 | 91 | 44 | 10.0 | 16.0 | 0.00 | 0.00 | 0.00 | 51 | 1014.8 |
| 20260901125204 | 91 | 54 | 10.0 | 16.0 | 0.00 | 0.00 | 0.00 | 52 | 1014.7 |
| 20260901125104 | 91 | 37 | 11.0 | 16.0 | 0.00 | 0.00 | 0.00 | 52 | 1014.8 |
| 20260901125009 | 91 | 52 | 4.0 | 16.0 | 0.00 | 0.00 | 0.00 | 52 | 1014.8 |
| 20260901124904 | 91 | 65 | 9.0 | 16.0 | 0.00 | 0.00 | 0.00 | 53 | 1014.8 |
| 20260901124804 | 91 | 58 | 9.0 | 16.0 | 0.00 | 0.00 | 0.00 | 54 | 1014.7 |
| 20260901124708 | 91 | 69 | 10.0 | 14.0 | 0.00 | 0.00 | 0.00 | 55 | 1014.8 |
| 20260901124605 | 91 | 82 | 9.0 | 13.0 | 0.00 | 0.00 | 0.00 | 55 | 1014.7 |
| 20260901124505 | 91 | 71 | 12.0 | 13.0 | 0.00 | 0.00 | 0.00 | 53 | 1014.7 |
| 20260901124406 | 91 | 80 | 9.0 | 13.0 | 0.00 | 0.00 | 0.00 | 52 | 1014.8 |
| 20260901124303 | 91 | 63 | 9.0 | 13.0 | 0.00 | 0.00 | 0.00 | 51 | 1014.8 |
| 20260901124204 | 91 | 43 | 5.0 | 13.0 | 0.00 | 0.00 | 0.00 | 51 | 1014.8 |
| 20260901124107 | 91 | 47 | 10.0 | 13.0 | 0.00 | 0.00 | 0.00 | 51 | 1014.8 |
| 20260901124006 | 91 | 72 | 10.0 | 13.0 | 0.00 | 0.00 | 0.00 | 51 | 1014.8 |
| 20260901123905 | 91 | 54 | 9.0 | 13.0 | 0.00 | 0.00 | 0.00 | 52 | 1014.8 |
| 20260901123807 | 91 | 49 | 8.0 | 15.0 | 0.00 | 0.00 | 0.00 | 51 | 1014.8 |
| 20260901123705 | 91 | 34 | 9.0 | 15.0 | 0.00 | 0.00 | 0.00 | 52 | 1014.8 |
| 20260901123507 | 91 | 40 | 10.0 | 15.0 | 0.00 | 0.00 | 0.00 | 53 | 1014.8 |
| 20260901123404 | 91 | 49 | 6.0 | 15.0 | 0.00 | 0.00 | 0.00 | 53 | 1014.8 |
| 20260901123304 | 90 | 34 | 11.0 | 15.0 | 0.00 | 0.00 | 0.00 | 53 | 1014.8 |
| 20260901122703 | 90 | 111 | 7.0 | 15.0 | 0.00 | 0.00 | 0.00 | 52 | 1014.8 |
| 20260901122505 | 90 | 42 | 7.0 | 15.0 | 0.00 | 0.00 | 0.00 | 54 | 1014.8 |
| 20260901122404 | 90 | 76 | 9.0 | 15.0 | 0.00 | 0.00 | 0.00 | 52 | 1014.8 |
| 20260901122306 | 91 | 52 | 8.0 | 15.0 | 0.00 | 0.00 | 0.00 | 51 | 1014.8 |
| 20260901122204 | 91 | 48 | 8.0 | 15.0 | 0.00 | 0.00 | 0.00 | 51 | 1014.7 |
| 20260901122104 | 91 | 21 | 7.0 | 15.0 | 0.00 | 0.00 | 0.00 | 52 | 1014.8 |
| 20260901122007 | 91 | 41 | 7.0 | 15.0 | 0.00 | 0.00 | 0.00 | 53 | 1014.8 |
| 20260901121904 | 91 | 57 | 9.0 | 15.0 | 0.00 | 0.00 | 0.00 | 52 | 1014.7 |
| 20260901121804 | 91 | 40 | 11.0 | 15.0 | 0.00 | 0.00 | 0.00 | 53 | 1014.7 |
| 20260901121706 | 91 | 30 | 11.0 | 15.0 | 0.00 | 0.00 | 0.00 | 52 | 1014.8 |
| 20260901121604 | 91 | 43 | 6.0 | 16.0 | 0.00 | 0.00 | 0.00 | 53 | 1014.8 |
| 20260901121504 | 91 | 54 | 6.0 | 16.0 | 0.00 | 0.00 | 0.00 | 52 | 1014.8 |
| 20260901121304 | 91 | 52 | 8.0 | 17.0 | 0.00 | 0.00 | 0.00 | 53 | 1014.8 |
| 20260901121203 | 91 | 72 | 10.0 | 17.0 | 0.00 | 0.00 | 0.00 | 53 | 1014.8 |
| 20260901121106 | 91 | 78 | 12.0 | 17.0 | 0.00 | 0.00 | 0.00 | 52 | 1014.8 |
| 20260901121005 | 91 | 37 | 11.0 | 17.0 | 0.00 | 0.00 | 0.00 | 52 | 1014.8 |
| 20260901120704 | 91 | 82 | 11.0 | 17.0 | 0.00 | 0.00 | 0.00 | 51 | 1014.9 |
| 20260901120603 | 91 | 70 | 9.0 | 17.0 | 0.00 | 0.00 | 0.00 | 52 | 1014.9 |
| 20260901120403 | 91 | 81 | 9.0 | 14.0 | 0.00 | 0.00 | 0.00 | 50 | 1014.8 |
| 20260901120206 | 91 | 62 | 8.0 | 14.0 | 0.00 | 0.00 | 0.00 | 49 | 1014.8 |
| 20260901120131 | 91 | 30 | 10.0 | 14.0 | 0.00 | 0.00 | 0.00 | 51 | 1014.8 |
| 20260901115908 | 91 | 23 | 9.0 | 14.0 | 0.00 | 0.00 | 0.00 | 50 | 1014.9 |
| 20260901115804 | 91 | 15 | 10.0 | 14.0 | 0.00 | 0.00 | 0.00 | 49 | 1014.8 |
| 20260901115606 | 91 | 25 | 11.0 | 14.0 | 0.00 | 0.00 | 0.00 | 48 | 1014.8 |
| 20260901115504 | 91 | 23 | 10.0 | 14.0 | 0.00 | 0.00 | 0.00 | 47 | 1014.9 |
| 20260901115403 | 91 | 49 | 12.0 | 13.0 | 0.00 | 0.00 | 0.00 | 47 | 1014.9 |
| 20260901115307 | 91 | 23 | 9.0 | 12.0 | 0.00 | 0.00 | 0.00 | 46 | 1014.9 |
| 20260901115203 | 92 | 54 | 10.0 | 12.0 | 0.00 | 0.00 | 0.00 | 46 | 1014.9 |
| 20260901115103 | 92 | 30 | 8.0 | 12.0 | 0.00 | 0.00 | 0.00 | 47 | 1014.9 |
| 20260901114903 | 91 | 75 | 9.0 | 12.0 | 0.00 | 0.00 | 0.00 | 47 | 1014.9 |
| 20260901114805 | 91 | 103 | 8.0 | 13.0 | 0.00 | 0.00 | 0.00 | 47 | 1014.9 |
| 20260901114707 | 91 | 64 | 10.0 | 13.0 | 0.00 | 0.00 | 0.00 | 46 | 1014.9 |
| 20260901114603 | 91 | 85 | 8.0 | 10.0 | 0.00 | 0.00 | 0.00 | 45 | 1014.9 |
| 20260901114504 | 91 | 56 | 6.0 | 10.0 | 0.00 | 0.00 | 0.00 | 47 | 1014.9 |
| 20260901114408 | 91 | 62 | 5.0 | 10.0 | 0.00 | 0.00 | 0.00 | 45 | 1014.9 |
| 20260901114106 | 91 | 90 | 5.0 | 10.0 | 0.00 | 0.00 | 0.00 | 44 | 1014.9 |
| 20260901114004 | 91 | 80 | 1.0 | 10.0 | 0.00 | 0.00 | 0.00 | 46 | 1014.9 |
| 20260901113903 | 91 | 13 | 4.0 | 10.0 | 0.00 | 0.00 | 0.00 | 45 | 1014.9 |
| 20260901113806 | 91 | 28 | 5.0 | 11.0 | 0.00 | 0.00 | 0.00 | 45 | 1014.9 |
| 20260901113703 | 90 | 18 | 9.0 | 11.0 | 0.00 | 0.00 | 0.00 | 47 | 1014.9 |
| 20260901113604 | 90 | 66 | 3.0 | 11.0 | 0.00 | 0.00 | 0.00 | 46 | 1014.9 |
| 20260901113509 | 90 | 20 | 7.0 | 11.0 | 0.00 | 0.00 | 0.00 | 46 | 1014.9 |
| 20260901113404 | 90 | 128 | 4.0 | 11.0 | 0.00 | 0.00 | 0.00 | 46 | 1014.9 |
| 20260901113206 | 90 | 98 | 7.0 | 11.0 | 0.00 | 0.00 | 0.00 | 46 | 1014.9 |
| 20260901113103 | 90 | 106 | 7.0 | 11.0 | 0.00 | 0.00 | 0.00 | 45 | 1014.9 |
| 20260901113006 | 90 | 32 | 7.0 | 11.0 | 0.00 | 0.00 | 0.00 | 46 | 1014.9 |
| 20260901112804 | 90 | 50 | 10.0 | 11.0 | 0.00 | 0.00 | 0.00 | 46 | 1014.9 |
| 20260901112704 | 90 | 34 | 10.0 | 10.0 | 0.00 | 0.00 | 0.00 | 46 | 1014.9 |
| 20260901112606 | 90 | 35 | 3.0 | 10.0 | 0.00 | 0.00 | 0.00 | 49 | 1015.0 |
| 20260901112504 | 90 | 360 | 6.0 | 10.0 | 0.00 | 0.00 | 0.00 | 46 | 1014.9 |
| 20260901112405 | 90 | 17 | 5.0 | 11.0 | 0.00 | 0.00 | 0.00 | 45 | 1014.9 |
| 20260901112104 | 90 | 5 | 3.0 | 14.0 | 0.00 | 0.00 | 0.00 | 46 | 1015.0 |
| 20260901111903 | 90 | 335 | 4.0 | 14.0 | 0.00 | 0.00 | 0.00 | 47 | 1015.0 |
| 20260901111804 | 90 | 9 | 8.0 | 14.0 | 0.00 | 0.00 | 0.00 | 48 | 1015.0 |
| 20260901111706 | 90 | 65 | 4.0 | 14.0 | 0.00 | 0.00 | 0.00 | 47 | 1015.0 |
| 20260901111603 | 90 | 51 | 6.0 | 14.0 | 0.00 | 0.00 | 0.00 | 45 | 1015.0 |
| 20260901111504 | 90 | 32 | 8.0 | 14.0 | 0.00 | 0.00 | 0.00 | 46 | 1015.0 |
| 20260901111406 | 90 | 19 | 9.0 | 14.0 | 0.00 | 0.00 | 0.00 | 46 | 1015.0 |
| 20260901111304 | 90 | 82 | 6.0 | 14.0 | 0.00 | 0.00 | 0.00 | 46 | 1015.0 |
| 20260901111004 | 89 | 28 | 7.0 | 11.0 | 0.00 | 0.00 | 0.00 | 47 | 1015.2 |
| 20260901110903 | 89 | 19 | 9.0 | 11.0 | 0.00 | 0.00 | 0.00 | 47 | 1015.1 |
| 20260901110806 | 89 | 34 | 8.0 | 11.0 | 0.00 | 0.00 | 0.00 | 48 | 1015.1 |
| 20260901110703 | 89 | 36 | 6.0 | 11.0 | 0.00 | 0.00 | 0.00 | 48 | 1015.1 |
| 20260901110603 | 89 | 40 | 7.0 | 12.0 | 0.00 | 0.00 | 0.00 | 48 | 1015.1 |
| 20260901110403 | 89 | 342 | 2.0 | 13.0 | 0.00 | 0.00 | 0.00 | 46 | 1015.1 |
| 20260901110303 | 89 | 360 | 4.0 | 13.0 | 0.00 | 0.00 | 0.00 | 46 | 1015.1 |
| 20260901110206 | 89 | 20 | 5.0 | 13.0 | 0.00 | 0.00 | 0.00 | 46 | 1015.2 |
| 20260901110104 | 89 | 36 | 7.0 | 13.0 | 0.00 | 0.00 | 0.00 | 47 | 1015.1 |
| 20260901110007 | 89 | 24 | 9.0 | 13.0 | 0.00 | 0.00 | 0.00 | 46 | 1015.2 |
| 20260901105803 | 89 | 64 | 8.0 | 13.0 | 0.00 | 0.00 | 0.00 | 46 | 1015.2 |
| 20260901105704 | 89 | 32 | 8.0 | 13.0 | 0.00 | 0.00 | 0.00 | 47 | 1015.2 |
| 20260901105606 | 89 | 30 | 11.0 | 13.0 | 0.00 | 0.00 | 0.00 | 47 | 1015.2 |
| 20260901105404 | 89 | 42 | 6.0 | 12.0 | 0.00 | 0.00 | 0.00 | 46 | 1015.1 |
| 20260901105307 | 89 | 37 | 6.0 | 12.0 | 0.00 | 0.00 | 0.00 | 48 | 1015.2 |
| 20260901105203 | 89 | 338 | 6.0 | 12.0 | 0.00 | 0.00 | 0.00 | 48 | 1015.2 |
| 20260901105103 | 89 | 14 | 6.0 | 12.0 | 0.00 | 0.00 | 0.00 | 49 | 1015.2 |
| 20260901105009 | 89 | 19 | 4.0 | 12.0 | 0.00 | 0.00 | 0.00 | 48 | 1015.2 |
| 20260901104904 | 89 | 63 | 5.0 | 12.0 | 0.00 | 0.00 | 0.00 | 46 | 1015.2 |
| 20260901104803 | 89 | 34 | 7.0 | 12.0 | 0.00 | 0.00 | 0.00 | 48 | 1015.2 |
| 20260901104706 | 89 | 84 | 1.0 | 12.0 | 0.00 | 0.00 | 0.00 | 46 | 1015.2 |
| 20260901104603 | 89 | 84 | 3.0 | 12.0 | 0.00 | 0.00 | 0.00 | 49 | 1015.3 |
| 20260901104505 | 89 | 44 | 5.0 | 12.0 | 0.00 | 0.00 | 0.00 | 48 | 1015.2 |
| 20260901104303 | 89 | 67 | 8.0 | 10.0 | 0.00 | 0.00 | 0.00 | 48 | 1015.2 |
| 20260901104203 | 88 | 15 | 5.0 | 10.0 | 0.00 | 0.00 | 0.00 | 49 | 1015.2 |
| 20260901104004 | 88 | 50 | 6.0 | 10.0 | 0.00 | 0.00 | 0.00 | 48 | 1015.2 |
| 20260901103903 | 88 | 355 | 4.0 | 10.0 | 0.00 | 0.00 | 0.00 | 47 | 1015.2 |
| 20260901103704 | 89 | 309 | 2.0 | 10.0 | 0.00 | 0.00 | 0.00 | 47 | 1015.3 |
| 20260901103603 | 89 | 43 | 3.0 | 10.0 | 0.00 | 0.00 | 0.00 | 46 | 1015.3 |
| 20260901103405 | 89 | 34 | 5.0 | 12.0 | 0.00 | 0.00 | 0.00 | 48 | 1015.2 |
| 20260901103206 | 89 | 38 | 6.0 | 12.0 | 0.00 | 0.00 | 0.00 | 48 | 1015.2 |
| 20260901103104 | 89 | 25 | 7.0 | 12.0 | 0.00 | 0.00 | 0.00 | 47 | 1015.3 |
| 20260901103004 | 89 | 29 | 3.0 | 12.0 | 0.00 | 0.00 | 0.00 | 48 | 1015.3 |
| 20260901102907 | 89 | 36 | 3.0 | 12.0 | 0.00 | 0.00 | 0.00 | 47 | 1015.3 |
| 20260901102703 | 89 | 49 | 6.0 | 12.0 | 0.00 | 0.00 | 0.00 | 47 | 1015.3 |
| 20260901102606 | 89 | 69 | 8.0 | 12.0 | 0.00 | 0.00 | 0.00 | 47 | 1015.3 |
| 20260901102504 | 89 | 52 | 3.0 | 12.0 | 0.00 | 0.00 | 0.00 | 46 | 1015.3 |
| 20260901102404 | 89 | 47 | 8.0 | 11.0 | 0.00 | 0.00 | 0.00 | 47 | 1015.3 |
| 20260901102306 | 89 | 22 | 7.0 | 11.0 | 0.00 | 0.00 | 0.00 | 46 | 1015.3 |
| 20260901102007 | 90 | 355 | 10.0 | 10.0 | 0.00 | 0.00 | 0.00 | 48 | 1015.3 |
| 20260901101904 | 90 | 355 | 6.0 | 9.0 | 0.00 | 0.00 | 0.00 | 48 | 1015.3 |
| 20260901101803 | 89 | 360 | 8.0 | 9.0 | 0.00 | 0.00 | 0.00 | 47 | 1015.3 |
| 20260901101706 | 89 | 346 | 5.0 | 9.0 | 0.00 | 0.00 | 0.00 | 46 | 1015.4 |
| 20260901101604 | 89 | 35 | 7.0 | 8.0 | 0.00 | 0.00 | 0.00 | 46 | 1015.3 |
| 20260901101505 | 89 | 38 | 2.0 | 10.0 | 0.00 | 0.00 | 0.00 | 47 | 1015.4 |
| 20260901101407 | 89 | 44 | 3.0 | 10.0 | 0.00 | 0.00 | 0.00 | 48 | 1015.4 |
| 20260901101204 | 89 | 68 | 4.0 | 10.0 | 0.00 | 0.00 | 0.00 | 47 | 1015.4 |
| 20260901101106 | 89 | 52 | 4.0 | 10.0 | 0.00 | 0.00 | 0.00 | 47 | 1015.4 |
| 20260901101005 | 89 | 5 | 3.0 | 10.0 | 0.00 | 0.00 | 0.00 | 47 | 1015.4 |
| 20260901100904 | 89 | 91 | 5.0 | 10.0 | 0.00 | 0.00 | 0.00 | 47 | 1015.4 |
| 20260901100806 | 89 | 62 | 8.0 | 10.0 | 0.00 | 0.00 | 0.00 | 46 | 1015.4 |
| 20260901100604 | 90 | 29 | 6.0 | 10.0 | 0.00 | 0.00 | 0.00 | 47 | 1015.4 |
| 20260901100507 | 89 | 38 | 6.0 | 9.0 | 0.00 | 0.00 | 0.00 | 47 | 1015.4 |
| 20260901100403 | 89 | 78 | 2.0 | 9.0 | 0.00 | 0.00 | 0.00 | 47 | 1015.5 |
| 20260901100304 | 89 | 50 | 3.0 | 9.0 | 0.00 | 0.00 | 0.00 | 48 | 1015.4 |
| 20260901100207 | 89 | 78 | 5.0 | 9.0 | 0.00 | 0.00 | 0.00 | 48 | 1015.5 |
| 20260901100119 | 89 | 51 | 3.0 | 6.0 | 0.00 | 0.00 | 0.00 | 49 | 1015.5 |
| 20260901100006 | 89 | 42 | 4.0 | 6.0 | 0.00 | 0.00 | 0.00 | 48 | 1015.5 |
| 20260901095907 | 89 | 38 | 2.0 | 6.0 | 0.00 | 0.00 | 0.00 | 47 | 1015.5 |
| 20260901095703 | 89 | 17 | 1.0 | 7.0 | 0.00 | 0.00 | 0.00 | 47 | 1015.5 |
| 20260901095608 | 89 | 17 | 1.0 | 7.0 | 0.00 | 0.00 | 0.00 | 48 | 1015.5 |
| 20260901095403 | 88 | 57 | 3.0 | 7.0 | 0.00 | 0.00 | 0.00 | 48 | 1015.5 |
| 20260901095306 | 88 | 38 | 5.0 | 7.0 | 0.00 | 0.00 | 0.00 | 49 | 1015.6 |
| 20260901095203 | 88 | 22 | 4.0 | 7.0 | 0.00 | 0.00 | 0.00 | 49 | 1015.5 |
| 20260901095103 | 88 | 46 | 2.0 | 9.0 | 0.00 | 0.00 | 0.00 | 48 | 1015.6 |
| 20260901095009 | 88 | 46 | 1.0 | 9.0 | 0.00 | 0.00 | 0.00 | 47 | 1015.6 |
| 20260901094904 | 88 | 84 | 2.0 | 9.0 | 0.00 | 0.00 | 0.00 | 47 | 1015.6 |
| 20260901094804 | 88 | 23 | 5.0 | 9.0 | 0.00 | 0.00 | 0.00 | 50 | 1015.6 |
| 20260901094707 | 88 | 57 | 4.0 | 9.0 | 0.00 | 0.00 | 0.00 | 48 | 1015.6 |
| 20260901094605 | 88 | 86 | 2.0 | 9.0 | 0.00 | 0.00 | 0.00 | 48 | 1015.6 |
| 20260901094504 | 88 | 111 | 2.0 | 9.0 | 0.00 | 0.00 | 0.00 | 48 | 1015.6 |
| 20260901094406 | 88 | 101 | 5.0 | 9.0 | 0.00 | 0.00 | 0.00 | 48 | 1015.7 |
| 20260901094304 | 88 | 136 | 6.0 | 9.0 | 0.00 | 0.00 | 0.00 | 49 | 1015.7 |
| 20260901094106 | 88 | 90 | 9.0 | 9.0 | 0.00 | 0.00 | 0.00 | 49 | 1015.6 |
| 20260901093904 | 87 | 97 | 2.0 | 9.0 | 0.00 | 0.00 | 0.00 | 50 | 1015.6 |
| 20260901093806 | 87 | 82 | 3.0 | 9.0 | 0.00 | 0.00 | 0.00 | 51 | 1015.6 |
| 20260901093704 | 87 | 87 | 7.0 | 9.0 | 0.00 | 0.00 | 0.00 | 49 | 1015.7 |
| 20260901093603 | 87 | 75 | 4.0 | 7.0 | 0.00 | 0.00 | 0.00 | 50 | 1015.6 |
| 20260901093506 | 87 | 27 | 1.0 | 7.0 | 0.00 | 0.00 | 0.00 | 51 | 1015.6 |
| 20260901093404 | 87 | 21 | 3.0 | 7.0 | 0.00 | 0.00 | 0.00 | 50 | 1015.6 |
| 20260901093304 | 87 | 48 | 1.0 | 8.0 | 0.00 | 0.00 | 0.00 | 49 | 1015.7 |
| 20260901093103 | 87 | 360 | 2.0 | 8.0 | 0.00 | 0.00 | 0.00 | 50 | 1015.6 |
| 20260901093004 | 87 | 341 | 3.0 | 8.0 | 0.00 | 0.00 | 0.00 | 50 | 1015.7 |
| 20260901092906 | 87 | 47 | 2.0 | 8.0 | 0.00 | 0.00 | 0.00 | 51 | 1015.7 |
| 20260901092803 | 86 | 36 | 6.0 | 8.0 | 0.00 | 0.00 | 0.00 | 51 | 1015.7 |
| 20260901092703 | 86 | 5 | 3.0 | 8.0 | 0.00 | 0.00 | 0.00 | 53 | 1015.7 |
| 20260901092608 | 86 | 17 | 3.0 | 8.0 | 0.00 | 0.00 | 0.00 | 53 | 1015.7 |
| 20260901092405 | 86 | 28 | 3.0 | 8.0 | 0.00 | 0.00 | 0.00 | 51 | 1015.7 |
| 20260901092306 | 86 | 46 | 6.0 | 8.0 | 0.00 | 0.00 | 0.00 | 52 | 1015.7 |
| 20260901092205 | 86 | 28 | 7.0 | 7.0 | 0.00 | 0.00 | 0.00 | 51 | 1015.7 |
| 20260901092008 | 86 | 70 | 3.0 | 7.0 | 0.00 | 0.00 | 0.00 | 52 | 1015.7 |
| 20260901091904 | 86 | 56 | 7.0 | 7.0 | 0.00 | 0.00 | 0.00 | 52 | 1015.7 |
| 20260901091803 | 86 | 40 | 4.0 | 6.0 | 0.00 | 0.00 | 0.00 | 52 | 1015.7 |
| 20260901091707 | 86 | 41 | 2.0 | 6.0 | 0.00 | 0.00 | 0.00 | 51 | 1015.7 |
| 20260901091603 | 86 | 281 | 2.0 | 7.0 | 0.00 | 0.00 | 0.00 | 51 | 1015.7 |
| 20260901091303 | 86 | 346 | 4.0 | 8.0 | 0.00 | 0.00 | 0.00 | 51 | 1015.7 |
| 20260901091203 | 86 | 338 | 1.0 | 8.0 | 0.00 | 0.00 | 0.00 | 51 | 1015.8 |
| 20260901091106 | 86 | 329 | 1.0 | 8.0 | 0.00 | 0.00 | 0.00 | 51 | 1015.8 |
| 20260901090903 | 87 | 355 | 6.0 | 8.0 | 0.00 | 0.00 | 0.00 | 52 | 1015.8 |
| 20260901090806 | 87 | 355 | 4.0 | 8.0 | 0.00 | 0.00 | 0.00 | 51 | 1015.8 |
| 20260901090703 | 87 | 5 | 3.0 | 8.0 | 0.00 | 0.00 | 0.00 | 54 | 1015.8 |
| 20260901090604 | 87 | 13 | 4.0 | 8.0 | 0.00 | 0.00 | 0.00 | 52 | 1015.8 |
| 20260901090507 | 86 | 21 | 5.0 | 8.0 | 0.00 | 0.00 | 0.00 | 52 | 1015.8 |
| 20260901090404 | 86 | 46 | 5.0 | 7.0 | 0.00 | 0.00 | 0.00 | 52 | 1015.8 |
| 20260901090304 | 86 | 133 | 2.0 | 7.0 | 0.00 | 0.00 | 0.00 | 52 | 1015.7 |
| 20260901090206 | 86 | 111 | 5.0 | 7.0 | 0.00 | 0.00 | 0.00 | 53 | 1015.8 |
| 20260901090006 | 86 | 86 | 0.0 | 7.0 | 0.00 | 0.00 | 0.00 | 53 | 1015.8 |
| 20260901085908 | 86 | 97 | 7.0 | 7.0 | 0.00 | 0.00 | 0.00 | 53 | 1015.8 |
| 20260901085805 | 86 | 75 | 3.0 | 7.0 | 0.00 | 0.00 | 0.00 | 53 | 1015.8 |
| 20260901085703 | 86 | 55 | 3.0 | 7.0 | 0.00 | 0.00 | 0.00 | 53 | 1015.8 |
| 20260901085504 | 86 | 27 | 4.0 | 5.0 | 0.00 | 0.00 | 0.00 | 54 | 1015.8 |
| 20260901085404 | 86 | 30 | 4.0 | 5.0 | 0.00 | 0.00 | 0.00 | 55 | 1015.8 |
| 20260901085306 | 85 | 355 | 3.0 | 5.0 | 0.00 | 0.00 | 0.00 | 56 | 1015.7 |
| 20260901085203 | 85 | 5 | 2.0 | 5.0 | 0.00 | 0.00 | 0.00 | 57 | 1015.7 |
| 20260901085105 | 85 | 340 | 2.0 | 5.0 | 0.00 | 0.00 | 0.00 | 56 | 1015.7 |
| 20260901085008 | 85 | 338 | 4.0 | 5.0 | 0.00 | 0.00 | 0.00 | 56 | 1015.7 |
| 20260901084903 | 85 | 48 | 1.0 | 4.0 | 0.00 | 0.00 | 0.00 | 55 | 1015.8 |
| 20260901084803 | 85 | 355 | 1.0 | 4.0 | 0.00 | 0.00 | 0.00 | 56 | 1015.8 |
| 20260901084707 | 85 | 26 | 3.0 | 4.0 | 0.00 | 0.00 | 0.00 | 56 | 1015.8 |
| 20260901084603 | 85 | 329 | 1.0 | 4.0 | 0.00 | 0.00 | 0.00 | 56 | 1015.8 |
| 20260901084504 | 85 | 317 | 2.0 | 4.0 | 0.00 | 0.00 | 0.00 | 55 | 1015.8 |
| 20260901084408 | 85 | 315 | 2.0 | 4.0 | 0.00 | 0.00 | 0.00 | 56 | 1015.8 |
| 20260901084304 | 85 | 5 | 3.0 | 4.0 | 0.00 | 0.00 | 0.00 | 55 | 1015.8 |
| 20260901084203 | 85 | 65 | 2.0 | 4.0 | 0.00 | 0.00 | 0.00 | 56 | 1015.8 |
| 20260901084107 | 85 | 188 | 0.0 | 4.0 | 0.00 | 0.00 | 0.00 | 55 | 1015.8 |
| 20260901083903 | 85 | 188 | 1.0 | 4.0 | 0.00 | 0.00 | 0.00 | 55 | 1015.9 |
| 20260901083806 | 85 | 188 | 3.0 | 4.0 | 0.00 | 0.00 | 0.00 | 55 | 1015.8 |
| 20260901083703 | 85 | 161 | 1.0 | 3.0 | 0.00 | 0.00 | 0.00 | 55 | 1015.8 |
| 20260901083603 | 85 | 150 | 2.0 | 5.0 | 0.00 | 0.00 | 0.00 | 56 | 1015.8 |
| 20260901083506 | 85 | 165 | 1.0 | 5.0 | 0.00 | 0.00 | 0.00 | 56 | 1015.8 |
| 20260901083305 | 84 | 123 | 2.0 | 5.0 | 0.00 | 0.00 | 0.00 | 57 | 1015.8 |
| 20260901083106 | 84 | 125 | 2.0 | 5.0 | 0.00 | 0.00 | 0.00 | 56 | 1015.8 |
| 20260901083004 | 84 | 98 | 1.0 | 5.0 | 0.00 | 0.00 | 0.00 | 57 | 1015.8 |
| 20260901082907 | 84 | 98 | 1.0 | 5.0 | 0.00 | 0.00 | 0.00 | 58 | 1015.8 |
| 20260901082705 | 83 | 98 | 3.0 | 5.0 | 0.00 | 0.00 | 0.00 | 59 | 1015.8 |
| 20260901082607 | 83 | 161 | 3.0 | 6.0 | 0.00 | 0.00 | 0.00 | 58 | 1015.8 |
| 20260901082504 | 83 | 137 | 3.0 | 6.0 | 0.00 | 0.00 | 0.00 | 58 | 1015.8 |
| 20260901082403 | 83 | 53 | 1.0 | 7.0 | 0.00 | 0.00 | 0.00 | 58 | 1015.8 |
| 20260901082308 | 83 | 53 | 0.0 | 7.0 | 0.00 | 0.00 | 0.00 | 57 | 1015.8 |
| 20260901082203 | 83 | 36 | 3.0 | 7.0 | 0.00 | 0.00 | 0.00 | 58 | 1015.8 |
| 20260901082103 | 84 | 40 | 4.0 | 7.0 | 0.00 | 0.00 | 0.00 | 59 | 1015.8 |
| 20260901082008 | 84 | 23 | 3.0 | 7.0 | 0.00 | 0.00 | 0.00 | 57 | 1015.8 |
| 20260901081903 | 84 | 39 | 0.0 | 7.0 | 0.00 | 0.00 | 0.00 | 58 | 1015.8 |
| 20260901081805 | 84 | 43 | 3.0 | 7.0 | 0.00 | 0.00 | 0.00 | 57 | 1015.8 |
| 20260901081706 | 84 | 49 | 3.0 | 7.0 | 0.00 | 0.00 | 0.00 | 57 | 1015.8 |
| 20260901081604 | 84 | 21 | 6.0 | 7.0 | 0.00 | 0.00 | 0.00 | 58 | 1015.8 |
| 20260901081504 | 84 | 33 | 6.0 | 7.0 | 0.00 | 0.00 | 0.00 | 58 | 1015.8 |
| 20260901081406 | 84 | 43 | 5.0 | 7.0 | 0.00 | 0.00 | 0.00 | 59 | 1015.8 |
| 20260901081303 | 84 | 28 | 6.0 | 6.0 | 0.00 | 0.00 | 0.00 | 59 | 1015.8 |
| 20260901081203 | 84 | 27 | 6.0 | 7.0 | 0.00 | 0.00 | 0.00 | 59 | 1015.8 |
| 20260901081106 | 84 | 68 | 2.0 | 7.0 | 0.00 | 0.00 | 0.00 | 60 | 1015.8 |
| 20260901081005 | 84 | 28 | 5.0 | 7.0 | 0.00 | 0.00 | 0.00 | 60 | 1015.8 |
| 20260901080806 | 83 | 132 | 5.0 | 7.0 | 0.00 | 0.00 | 0.00 | 59 | 1015.8 |
| 20260901080703 | 83 | 107 | 3.0 | 7.0 | 0.00 | 0.00 | 0.00 | 58 | 1015.8 |
| 20260901080603 | 83 | 68 | 5.0 | 7.0 | 0.00 | 0.00 | 0.00 | 58 | 1015.8 |
| 20260901080506 | 83 | 17 | 3.0 | 7.0 | 0.00 | 0.00 | 0.00 | 58 | 1015.8 |
| 20260901080404 | 83 | 33 | 3.0 | 7.0 | 0.00 | 0.00 | 0.00 | 58 | 1015.8 |
| 20260901080303 | 83 | 58 | 1.0 | 7.0 | 0.00 | 0.00 | 0.00 | 59 | 1015.8 |
| 20260901080208 | 83 | 58 | 2.0 | 7.0 | 0.00 | 0.00 | 0.00 | 60 | 1015.8 |
| 20260901080119 | 83 | 96 | 3.0 | 7.0 | 0.00 | 0.00 | 0.00 | 60 | 1015.8 |
| 20260901080007 | 83 | 113 | 3.0 | 7.0 | 0.00 | 0.00 | 0.00 | 60 | 1015.8 |
| 20260901075606 | 82 | 92 | 5.0 | 7.0 | 0.00 | 0.00 | 0.00 | 60 | 1015.6 |
| 20260901075504 | 82 | 69 | 4.0 | 7.0 | 0.00 | 0.00 | 0.00 | 60 | 1015.7 |
| 20260901075404 | 82 | 46 | 3.0 | 5.0 | 0.00 | 0.00 | 0.00 | 60 | 1015.6 |
| 20260901075307 | 82 | 51 | 4.0 | 5.0 | 0.00 | 0.00 | 0.00 | 61 | 1015.6 |
| 20260901075204 | 82 | 57 | 2.0 | 5.0 | 0.00 | 0.00 | 0.00 | 60 | 1015.6 |
| 20260901075008 | 82 | 45 | 4.0 | 4.0 | 0.00 | 0.00 | 0.00 | 60 | 1015.6 |
| 20260901074905 | 82 | 346 | 2.0 | 4.0 | 0.00 | 0.00 | 0.00 | 60 | 1015.6 |
| 20260901074707 | 82 | 355 | 1.0 | 4.0 | 0.00 | 0.00 | 0.00 | 60 | 1015.6 |
| 20260901074604 | 82 | 355 | 2.0 | 4.0 | 0.00 | 0.00 | 0.00 | 60 | 1015.5 |
| 20260901074504 | 82 | 40 | 3.0 | 4.0 | 0.00 | 0.00 | 0.00 | 61 | 1015.5 |
| 20260901074407 | 82 | 350 | 2.0 | 4.0 | 0.00 | 0.00 | 0.00 | 61 | 1015.5 |
| 20260901074303 | 82 | 350 | 2.0 | 5.0 | 0.00 | 0.00 | 0.00 | 63 | 1015.5 |
| 20260901074205 | 82 | 350 | 2.0 | 5.0 | 0.00 | 0.00 | 0.00 | 62 | 1015.5 |
| 20260901074106 | 82 | 350 | 2.0 | 5.0 | 0.00 | 0.00 | 0.00 | 62 | 1015.5 |
| 20260901074005 | 82 | 28 | 1.0 | 5.0 | 0.00 | 0.00 | 0.00 | 62 | 1015.5 |
| 20260901073903 | 82 | 21 | 1.0 | 5.0 | 0.00 | 0.00 | 0.00 | 62 | 1015.4 |
| 20260901073807 | 81 | 36 | 2.0 | 5.0 | 0.00 | 0.00 | 0.00 | 62 | 1015.4 |
| 20260901073604 | 81 | 306 | 2.0 | 5.0 | 0.00 | 0.00 | 0.00 | 62 | 1015.4 |
| 20260901073506 | 81 | 306 | 2.0 | 5.0 | 0.00 | 0.00 | 0.00 | 63 | 1015.4 |
| 20260901073404 | 81 | 342 | 2.0 | 5.0 | 0.00 | 0.00 | 0.00 | 64 | 1015.5 |
| 20260901073303 | 81 | 355 | 4.0 | 5.0 | 0.00 | 0.00 | 0.00 | 64 | 1015.5 |
| 20260901073206 | 81 | 321 | 3.0 | 5.0 | 0.00 | 0.00 | 0.00 | 64 | 1015.5 |
| 20260901073103 | 81 | 111 | 0.0 | 6.0 | 0.00 | 0.00 | 0.00 | 63 | 1015.5 |
| 20260901073004 | 81 | 111 | 1.0 | 6.0 | 0.00 | 0.00 | 0.00 | 64 | 1015.4 |
| 20260901072906 | 81 | 110 | 2.0 | 6.0 | 0.00 | 0.00 | 0.00 | 63 | 1015.4 |
| 20260901072803 | 81 | 123 | 1.0 | 6.0 | 0.00 | 0.00 | 0.00 | 63 | 1015.5 |
| 20260901072703 | 81 | 35 | 2.0 | 6.0 | 0.00 | 0.00 | 0.00 | 62 | 1015.5 |
| 20260901072606 | 81 | 314 | 0.0 | 6.0 | 0.00 | 0.00 | 0.00 | 62 | 1015.5 |
| 20260901072504 | 81 | 314 | 1.0 | 6.0 | 0.00 | 0.00 | 0.00 | 61 | 1015.5 |
| 20260901072404 | 81 | 314 | 1.0 | 6.0 | 0.00 | 0.00 | 0.00 | 63 | 1015.5 |
| 20260901072203 | 81 | 343 | 2.0 | 6.0 | 0.00 | 0.00 | 0.00 | 63 | 1015.5 |
| 20260901072103 | 81 | 332 | 4.0 | 5.0 | 0.00 | 0.00 | 0.00 | 64 | 1015.5 |
| 20260901072007 | 81 | 360 | 2.0 | 5.0 | 0.00 | 0.00 | 0.00 | 64 | 1015.4 |
| 20260901071904 | 80 | 344 | 4.0 | 5.0 | 0.00 | 0.00 | 0.00 | 66 | 1015.5 |
| 20260901071804 | 80 | 21 | 2.0 | 5.0 | 0.00 | 0.00 | 0.00 | 66 | 1015.5 |
| 20260901071706 | 80 | 26 | 4.0 | 5.0 | 0.00 | 0.00 | 0.00 | 65 | 1015.4 |
| 20260901071603 | 80 | 311 | 2.0 | 5.0 | 0.00 | 0.00 | 0.00 | 64 | 1015.4 |
| 20260901071503 | 80 | 311 | 2.0 | 5.0 | 0.00 | 0.00 | 0.00 | 64 | 1015.4 |
| 20260901071407 | 80 | 311 | 2.0 | 5.0 | 0.00 | 0.00 | 0.00 | 64 | 1015.4 |
| 20260901071204 | 80 | 360 | 1.0 | 5.0 | 0.00 | 0.00 | 0.00 | 65 | 1015.4 |
| 20260901071005 | 80 | 5 | 2.0 | 4.0 | 0.00 | 0.00 | 0.00 | 66 | 1015.4 |
| 20260901070904 | 79 | 326 | 1.0 | 4.0 | 0.00 | 0.00 | 0.00 | 67 | 1015.5 |
| 20260901070806 | 79 | 315 | 1.0 | 4.0 | 0.00 | 0.00 | 0.00 | 66 | 1015.5 |
| 20260901070703 | 79 | 325 | 3.0 | 5.0 | 0.00 | 0.00 | 0.00 | 66 | 1015.5 |
| 20260901070603 | 79 | 321 | 3.0 | 5.0 | 0.00 | 0.00 | 0.00 | 66 | 1015.4 |
| 20260901070507 | 79 | 278 | 2.0 | 5.0 | 0.00 | 0.00 | 0.00 | 67 | 1015.5 |
| 20260901070404 | 79 | 323 | 1.0 | 6.0 | 0.00 | 0.00 | 0.00 | 66 | 1015.5 |
| 20260901070303 | 79 | 311 | 3.0 | 6.0 | 0.00 | 0.00 | 0.00 | 66 | 1015.4 |
| 20260901070206 | 79 | 332 | 4.0 | 6.0 | 0.00 | 0.00 | 0.00 | 66 | 1015.4 |
| 20260901070103 | 79 | 265 | 1.0 | 6.0 | 0.00 | 0.00 | 0.00 | 67 | 1015.4 |
| 20260901070007 | 79 | 242 | 1.0 | 6.0 | 0.00 | 0.00 | 0.00 | 66 | 1015.4 |
| 20260901065907 | 79 | 244 | 2.0 | 6.0 | 0.00 | 0.00 | 0.00 | 67 | 1015.4 |
| 20260901065804 | 78 | 248 | 1.0 | 6.0 | 0.00 | 0.00 | 0.00 | 68 | 1015.4 |
| 20260901065704 | 78 | 226 | 4.0 | 6.0 | 0.00 | 0.00 | 0.00 | 67 | 1015.4 |
| 20260901065606 | 78 | 203 | 4.0 | 6.0 | 0.00 | 0.00 | 0.00 | 68 | 1015.4 |
| 20260901065504 | 78 | 232 | 3.0 | 6.0 | 0.00 | 0.00 | 0.00 | 68 | 1015.4 |
| 20260901065403 | 78 | 215 | 6.0 | 6.0 | 0.00 | 0.00 | 0.00 | 69 | 1015.4 |
| 20260901065306 | 78 | 274 | 1.0 | 5.0 | 0.00 | 0.00 | 0.00 | 69 | 1015.4 |
| 20260901065103 | 78 | 259 | 2.0 | 5.0 | 0.00 | 0.00 | 0.00 | 68 | 1015.4 |
| 20260901064803 | 78 | 276 | 3.0 | 5.0 | 0.00 | 0.00 | 0.00 | 68 | 1015.4 |
| 20260901064603 | 77 | 297 | 5.0 | 5.0 | 0.00 | 0.00 | 0.00 | 68 | 1015.4 |
| 20260901064503 | 77 | 298 | 1.0 | 5.0 | 0.00 | 0.00 | 0.00 | 69 | 1015.4 |
| 20260901064406 | 77 | 286 | 2.0 | 5.0 | 0.00 | 0.00 | 0.00 | 69 | 1015.4 |
| 20260901064303 | 77 | 299 | 4.0 | 5.0 | 0.00 | 0.00 | 0.00 | 69 | 1015.4 |
| 20260901064203 | 77 | 315 | 2.0 | 3.0 | 0.00 | 0.00 | 0.00 | 69 | 1015.4 |
| 20260901064106 | 77 | 315 | 1.0 | 3.0 | 0.00 | 0.00 | 0.00 | 70 | 1015.4 |
| 20260901064004 | 77 | 315 | 1.0 | 3.0 | 0.00 | 0.00 | 0.00 | 70 | 1015.4 |
| 20260901063806 | 77 | 315 | 0.0 | 4.0 | 0.00 | 0.00 | 0.00 | 69 | 1015.4 |
| 20260901063703 | 77 | 315 | 1.0 | 4.0 | 0.00 | 0.00 | 0.00 | 69 | 1015.4 |
| 20260901063604 | 77 | 315 | 1.0 | 4.0 | 0.00 | 0.00 | 0.00 | 70 | 1015.3 |
| 20260901063506 | 76 | 315 | 3.0 | 4.0 | 0.00 | 0.00 | 0.00 | 71 | 1015.4 |
| 20260901063303 | 76 | 333 | 2.0 | 4.0 | 0.00 | 0.00 | 0.00 | 72 | 1015.4 |
| 20260901063004 | 76 | 340 | 1.0 | 4.0 | 0.00 | 0.00 | 0.00 | 72 | 1015.4 |
| 20260901062906 | 76 | 312 | 2.0 | 4.0 | 0.00 | 0.00 | 0.00 | 72 | 1015.4 |
| 20260901062703 | 75 | 246 | 2.0 | 4.0 | 0.00 | 0.00 | 0.00 | 73 | 1015.4 |
| 20260901062504 | 75 | 206 | 3.0 | 4.0 | 0.00 | 0.00 | 0.00 | 73 | 1015.4 |
| 20260901062404 | 75 | 277 | 4.0 | 4.0 | 0.00 | 0.00 | 0.00 | 73 | 1015.4 |
| 20260901062310 | 75 | 271 | 3.0 | 4.0 | 0.00 | 0.00 | 0.00 | 74 | 1015.4 |
| 20260901062204 | 74 | 224 | 2.0 | 3.0 | 0.00 | 0.00 | 0.00 | 74 | 1015.4 |
| 20260901062103 | 74 | 224 | 0.0 | 3.0 | 0.00 | 0.00 | 0.00 | 74 | 1015.4 |
| 20260901062008 | 74 | 224 | 1.0 | 4.0 | 0.00 | 0.00 | 0.00 | 74 | 1015.4 |
| 20260901061903 | 74 | 224 | 0.0 | 4.0 | 0.00 | 0.00 | 0.00 | 74 | 1015.4 |
| 20260901061804 | 74 | 224 | 1.0 | 4.0 | 0.00 | 0.00 | 0.00 | 75 | 1015.4 |
| 20260901061707 | 74 | 224 | 0.0 | 4.0 | 0.00 | 0.00 | 0.00 | 75 | 1015.3 |
| 20260901061605 | 73 | 224 | 0.0 | 4.0 | 0.00 | 0.00 | 0.00 | 75 | 1015.3 |
| 20260901061406 | 73 | 224 | 1.0 | 4.0 | 0.00 | 0.00 | 0.00 | 76 | 1015.3 |
| 20260901061303 | 73 | 218 | 2.0 | 4.0 | 0.00 | 0.00 | 0.00 | 77 | 1015.3 |
| 20260901061204 | 73 | 219 | 2.0 | 4.0 | 0.00 | 0.00 | 0.00 | 77 | 1015.3 |
| 20260901061004 | 72 | 163 | 2.0 | 4.0 | 0.00 | 0.00 | 0.00 | 78 | 1015.3 |
| 20260901060903 | 72 | 163 | 2.0 | 4.0 | 0.00 | 0.00 | 0.00 | 78 | 1015.3 |
| 20260901060806 | 72 | 163 | 2.0 | 4.0 | 0.00 | 0.00 | 0.00 | 79 | 1015.3 |
| 20260901060703 | 72 | 163 | 2.0 | 3.0 | 0.00 | 0.00 | 0.00 | 79 | 1015.4 |
| 20260901060604 | 71 | 163 | 2.0 | 2.0 | 0.00 | 0.00 | 0.00 | 80 | 1015.3 |
| 20260901060403 | 71 | 163 | 0.0 | 2.0 | 0.00 | 0.00 | 0.00 | 81 | 1015.3 |
| 20260901060303 | 71 | 163 | 1.0 | 2.0 | 0.00 | 0.00 | 0.00 | 81 | 1015.3 |
| 20260901060206 | 71 | 163 | 1.0 | 2.0 | 0.00 | 0.00 | 0.00 | 81 | 1015.3 |
| 20260901060118 | 70 | 163 | 0.0 | 2.0 | 0.00 | 0.00 | 0.00 | 82 | 1015.3 |
| 20260901060007 | 70 | 163 | 1.0 | 2.0 | 0.00 | 0.00 | 0.00 | 82 | 1015.3 |
| 20260901055907 | 70 | 163 | 0.0 | 2.0 | 0.00 | 0.00 | 0.00 | 82 | 1015.4 |
| 20260901055703 | 70 | 163 | 0.0 | 2.0 | 0.00 | 0.00 | 0.00 | 83 | 1015.3 |
| 20260901055607 | 70 | 163 | 0.0 | 2.0 | 0.00 | 0.00 | 0.00 | 83 | 1015.4 |
| 20260901055503 | 70 | 163 | 2.0 | 2.0 | 0.00 | 0.00 | 0.00 | 83 | 1015.3 |
| 20260901055403 | 69 | 163 | 0.0 | 2.0 | 0.00 | 0.00 | 0.00 | 83 | 1015.3 |
| 20260901055306 | 69 | 163 | 2.0 | 3.0 | 0.00 | 0.00 | 0.00 | 84 | 1015.3 |
| 20260901055203 | 69 | 163 | 0.0 | 3.0 | 0.00 | 0.00 | 0.00 | 84 | 1015.3 |
| 20260901055103 | 69 | 163 | 1.0 | 3.0 | 0.00 | 0.00 | 0.00 | 84 | 1015.3 |
| 20260901055007 | 69 | 163 | 2.0 | 4.0 | 0.00 | 0.00 | 0.00 | 84 | 1015.3 |
| 20260901054904 | 69 | 163 | 0.0 | 4.0 | 0.00 | 0.00 | 0.00 | 84 | 1015.3 |
| 20260901054803 | 69 | 163 | 0.0 | 4.0 | 0.00 | 0.00 | 0.00 | 85 | 1015.3 |
| 20260901054706 | 68 | 163 | 1.0 | 4.0 | 0.00 | 0.00 | 0.00 | 85 | 1015.3 |
| 20260901054604 | 68 | 163 | 2.0 | 5.0 | 0.00 | 0.00 | 0.00 | 85 | 1015.3 |
| 20260901054504 | 68 | 163 | 1.0 | 5.0 | 0.00 | 0.00 | 0.00 | 85 | 1015.3 |
| 20260901054407 | 68 | 163 | 2.0 | 5.0 | 0.00 | 0.00 | 0.00 | 85 | 1015.3 |
| 20260901054303 | 68 | 163 | 2.0 | 5.0 | 0.00 | 0.00 | 0.00 | 86 | 1015.3 |
| 20260901054204 | 67 | 163 | 2.0 | 5.0 | 0.00 | 0.00 | 0.00 | 86 | 1015.3 |
| 20260901053903 | 67 | 163 | 4.0 | 5.0 | 0.00 | 0.00 | 0.00 | 87 | 1015.3 |
| 20260901053806 | 67 | 163 | 2.0 | 5.0 | 0.00 | 0.00 | 0.00 | 87 | 1015.3 |
| 20260901053704 | 67 | 163 | 3.0 | 5.0 | 0.00 | 0.00 | 0.00 | 87 | 1015.2 |
| 20260901053603 | 66 | 163 | 3.0 | 5.0 | 0.00 | 0.00 | 0.00 | 87 | 1015.2 |
| 20260901053507 | 66 | 163 | 4.0 | 5.0 | 0.00 | 0.00 | 0.00 | 88 | 1015.2 |
| 20260901053403 | 66 | 163 | 3.0 | 4.0 | 0.00 | 0.00 | 0.00 | 88 | 1015.2 |
| 20260901053303 | 66 | 163 | 3.0 | 4.0 | 0.00 | 0.00 | 0.00 | 88 | 1015.2 |
| 20260901053206 | 65 | 163 | 3.0 | 4.0 | 0.00 | 0.00 | 0.00 | 88 | 1015.2 |
| 20260901053104 | 65 | 163 | 2.0 | 4.0 | 0.00 | 0.00 | 0.00 | 88 | 1015.2 |
| 20260901053005 | 65 | 163 | 3.0 | 4.0 | 0.00 | 0.00 | 0.00 | 88 | 1015.2 |
| 20260901052906 | 65 | 163 | 2.0 | 4.0 | 0.00 | 0.00 | 0.00 | 88 | 1015.2 |
| 20260901052803 | 65 | 163 | 1.0 | 4.0 | 0.00 | 0.00 | 0.00 | 88 | 1015.2 |
| 20260901052703 | 65 | 163 | 2.0 | 4.0 | 0.00 | 0.00 | 0.00 | 88 | 1015.2 |
| 20260901052606 | 65 | 163 | 2.0 | 4.0 | 0.00 | 0.00 | 0.00 | 89 | 1015.2 |
| 20260901052503 | 65 | 163 | 1.0 | 4.0 | 0.00 | 0.00 | 0.00 | 89 | 1015.2 |
| 20260901052404 | 64 | 163 | 2.0 | 4.0 | 0.00 | 0.00 | 0.00 | 89 | 1015.2 |
| 20260901052310 | 64 | 163 | 3.0 | 4.0 | 0.00 | 0.00 | 0.00 | 89 | 1015.2 |
| 20260901052103 | 64 | 155 | 1.0 | 2.0 | 0.00 | 0.00 | 0.00 | 89 | 1015.1 |
| 20260901052007 | 64 | 155 | 0.0 | 2.0 | 0.00 | 0.00 | 0.00 | 89 | 1015.1 |
| 20260901051904 | 64 | 155 | 0.0 | 2.0 | 0.00 | 0.00 | 0.00 | 89 | 1015.1 |
| 20260901051803 | 64 | 155 | 0.0 | 2.0 | 0.00 | 0.00 | 0.00 | 89 | 1015.1 |
| 20260901051603 | 64 | 155 | 2.0 | 2.0 | 0.00 | 0.00 | 0.00 | 89 | 1015.1 |
| 20260901051503 | 64 | 155 | 0.0 | 2.0 | 0.00 | 0.00 | 0.00 | 89 | 1015.0 |
| 20260901051406 | 64 | 155 | 0.0 | 2.0 | 0.00 | 0.00 | 0.00 | 89 | 1015.0 |
| 20260901051304 | 64 | 155 | 0.0 | 2.0 | 0.00 | 0.00 | 0.00 | 89 | 1015.0 |
| 20260901051204 | 64 | 155 | 1.0 | 1.0 | 0.00 | 0.00 | 0.00 | 89 | 1015.1 |
| 20260901051106 | 64 | 155 | 0.0 | 1.0 | 0.00 | 0.00 | 0.00 | 89 | 1015.0 |
| 20260901051004 | 64 | 155 | 0.0 | 1.0 | 0.00 | 0.00 | 0.00 | 89 | 1015.0 |
| 20260901050903 | 64 | 155 | 0.0 | 1.0 | 0.00 | 0.00 | 0.00 | 88 | 1015.0 |
| 20260901050703 | 64 | 155 | 0.0 | 1.0 | 0.00 | 0.00 | 0.00 | 88 | 1015.0 |
| 20260901050508 | 64 | 155 | 0.0 | 3.0 | 0.00 | 0.00 | 0.00 | 89 | 1014.9 |
| 20260901050403 | 64 | 155 | 0.0 | 4.0 | 0.00 | 0.00 | 0.00 | 88 | 1014.9 |
| 20260901050105 | 64 | 155 | 0.0 | 4.0 | 0.00 | 0.00 | 0.00 | 89 | 1014.9 |
| 20260901045906 | 64 | 155 | 1.0 | 4.0 | 0.00 | 0.00 | 0.00 | 89 | 1014.8 |
| 20260901045803 | 64 | 155 | 0.0 | 4.0 | 0.00 | 0.00 | 0.00 | 89 | 1014.8 |
| 20260901045703 | 63 | 155 | 0.0 | 4.0 | 0.00 | 0.00 | 0.00 | 89 | 1014.8 |
| 20260901045607 | 63 | 155 | 0.0 | 4.0 | 0.00 | 0.00 | 0.00 | 89 | 1014.8 |
| 20260901045404 | 63 | 155 | 3.0 | 4.0 | 0.00 | 0.00 | 0.00 | 88 | 1014.7 |
| 20260901045307 | 63 | 155 | 4.0 | 4.0 | 0.00 | 0.00 | 0.00 | 88 | 1014.7 |
| 20260901045204 | 63 | 155 | 3.0 | 4.0 | 0.00 | 0.00 | 0.00 | 88 | 1014.7 |
| 20260901045103 | 63 | 155 | 4.0 | 4.0 | 0.00 | 0.00 | 0.00 | 88 | 1014.6 |
| 20260901045007 | 63 | 184 | 3.0 | 4.0 | 0.00 | 0.00 | 0.00 | 88 | 1014.6 |
| 20260901044904 | 63 | 202 | 2.0 | 4.0 | 0.00 | 0.00 | 0.00 | 88 | 1014.6 |
| 20260901044804 | 63 | 202 | 1.0 | 4.0 | 0.00 | 0.00 | 0.00 | 88 | 1014.6 |
| 20260901044604 | 63 | 202 | 3.0 | 4.0 | 0.00 | 0.00 | 0.00 | 88 | 1014.5 |
| 20260901044506 | 63 | 229 | 4.0 | 4.0 | 0.00 | 0.00 | 0.00 | 88 | 1014.5 |
| 20260901044406 | 63 | 229 | 3.0 | 4.0 | 0.00 | 0.00 | 0.00 | 88 | 1014.5 |
| 20260901044304 | 63 | 229 | 3.0 | 3.0 | 0.00 | 0.00 | 0.00 | 88 | 1014.6 |
| 20260901044204 | 63 | 229 | 3.0 | 3.0 | 0.00 | 0.00 | 0.00 | 88 | 1014.5 |
| 20260901044107 | 63 | 229 | 2.0 | 3.0 | 0.00 | 0.00 | 0.00 | 88 | 1014.5 |
| 20260901044004 | 63 | 229 | 2.0 | 3.0 | 0.00 | 0.00 | 0.00 | 87 | 1014.5 |
| 20260901043903 | 63 | 229 | 2.0 | 3.0 | 0.00 | 0.00 | 0.00 | 87 | 1014.5 |
| 20260901043806 | 63 | 229 | 2.0 | 3.0 | 0.00 | 0.00 | 0.00 | 88 | 1014.5 |
| 20260901043703 | 63 | 229 | 3.0 | 3.0 | 0.00 | 0.00 | 0.00 | 88 | 1014.5 |
| 20260901043604 | 64 | 229 | 3.0 | 3.0 | 0.00 | 0.00 | 0.00 | 87 | 1014.5 |
| 20260901043508 | 64 | 229 | 2.0 | 3.0 | 0.00 | 0.00 | 0.00 | 87 | 1014.5 |
| 20260901043404 | 64 | 229 | 2.0 | 3.0 | 0.00 | 0.00 | 0.00 | 87 | 1014.5 |
| 20260901043303 | 64 | 229 | 2.0 | 3.0 | 0.00 | 0.00 | 0.00 | 87 | 1014.5 |
| 20260901043105 | 64 | 229 | 2.0 | 4.0 | 0.00 | 0.00 | 0.00 | 87 | 1014.5 |
| 20260901043004 | 64 | 229 | 3.0 | 4.0 | 0.00 | 0.00 | 0.00 | 87 | 1014.5 |
| 20260901042906 | 64 | 229 | 1.0 | 4.0 | 0.00 | 0.00 | 0.00 | 87 | 1014.5 |
| 20260901042804 | 64 | 229 | 2.0 | 4.0 | 0.00 | 0.00 | 0.00 | 87 | 1014.5 |
| 20260901042703 | 64 | 229 | 2.0 | 4.0 | 0.00 | 0.00 | 0.00 | 87 | 1014.5 |
| 20260901042606 | 64 | 229 | 3.0 | 4.0 | 0.00 | 0.00 | 0.00 | 87 | 1014.5 |
| 20260901042504 | 64 | 229 | 3.0 | 4.0 | 0.00 | 0.00 | 0.00 | 87 | 1014.5 |
| 20260901042404 | 64 | 229 | 3.0 | 4.0 | 0.00 | 0.00 | 0.00 | 87 | 1014.5 |
| 20260901042306 | 64 | 229 | 3.0 | 4.0 | 0.00 | 0.00 | 0.00 | 87 | 1014.5 |
| 20260901042204 | 64 | 229 | 3.0 | 4.0 | 0.00 | 0.00 | 0.00 | 87 | 1014.5 |
| 20260901042103 | 64 | 229 | 4.0 | 4.0 | 0.00 | 0.00 | 0.00 | 87 | 1014.4 |
| 20260901042006 | 64 | 229 | 4.0 | 4.0 | 0.00 | 0.00 | 0.00 | 87 | 1014.5 |
| 20260901041706 | 64 | 240 | 3.0 | 4.0 | 0.00 | 0.00 | 0.00 | 87 | 1014.4 |
| 20260901041603 | 64 | 240 | 2.0 | 4.0 | 0.00 | 0.00 | 0.00 | 86 | 1014.4 |
| 20260901041506 | 64 | 240 | 1.0 | 4.0 | 0.00 | 0.00 | 0.00 | 86 | 1014.4 |
| 20260901041406 | 64 | 240 | 2.0 | 4.0 | 0.00 | 0.00 | 0.00 | 86 | 1014.3 |
| 20260901041304 | 64 | 240 | 2.0 | 4.0 | 0.00 | 0.00 | 0.00 | 86 | 1014.3 |
| 20260901041203 | 64 | 240 | 3.0 | 4.0 | 0.00 | 0.00 | 0.00 | 86 | 1014.3 |
| 20260901041106 | 64 | 240 | 3.0 | 4.0 | 0.00 | 0.00 | 0.00 | 86 | 1014.3 |
| 20260901041004 | 64 | 240 | 3.0 | 4.0 | 0.00 | 0.00 | 0.00 | 86 | 1014.3 |
| 20260901040903 | 64 | 240 | 3.0 | 4.0 | 0.00 | 0.00 | 0.00 | 85 | 1014.3 |
| 20260901040806 | 64 | 249 | 2.0 | 2.0 | 0.00 | 0.00 | 0.00 | 85 | 1014.3 |
| 20260901040703 | 64 | 249 | 2.0 | 3.0 | 0.00 | 0.00 | 0.00 | 85 | 1014.3 |
| 20260901040604 | 64 | 249 | 2.0 | 3.0 | 0.00 | 0.00 | 0.00 | 85 | 1014.3 |
| 20260901040506 | 64 | 249 | 2.0 | 3.0 | 0.00 | 0.00 | 0.00 | 85 | 1014.3 |
| 20260901040403 | 64 | 249 | 2.0 | 4.0 | 0.00 | 0.00 | 0.00 | 85 | 1014.3 |
| 20260901040207 | 64 | 249 | 2.0 | 4.0 | 0.00 | 0.00 | 0.00 | 85 | 1014.3 |
| 20260901040130 | 64 | 249 | 1.0 | 4.0 | 0.00 | 0.00 | 0.00 | 85 | 1014.3 |
| 20260901035906 | 64 | 249 | 2.0 | 4.0 | 0.00 | 0.00 | 0.00 | 85 | 1014.3 |
| 20260901035703 | 64 | 249 | 2.0 | 4.0 | 0.00 | 0.00 | 0.00 | 85 | 1014.3 |
| 20260901035503 | 64 | 242 | 3.0 | 4.0 | 0.00 | 0.00 | 0.00 | 84 | 1014.3 |
| 20260901035404 | 64 | 248 | 3.0 | 3.0 | 0.00 | 0.00 | 0.00 | 84 | 1014.3 |
| 20260901035306 | 64 | 255 | 2.0 | 3.0 | 0.00 | 0.00 | 0.00 | 84 | 1014.3 |
| 20260901035203 | 64 | 267 | 3.0 | 3.0 | 0.00 | 0.00 | 0.00 | 84 | 1014.3 |
| 20260901035104 | 64 | 273 | 2.0 | 3.0 | 0.00 | 0.00 | 0.00 | 84 | 1014.3 |
| 20260901035007 | 64 | 313 | 2.0 | 3.0 | 0.00 | 0.00 | 0.00 | 84 | 1014.3 |
| 20260901034803 | 64 | 355 | 2.0 | 3.0 | 0.00 | 0.00 | 0.00 | 84 | 1014.4 |
| 20260901034705 | 64 | 355 | 3.0 | 3.0 | 0.00 | 0.00 | 0.00 | 84 | 1014.4 |
| 20260901034604 | 64 | 355 | 3.0 | 3.0 | 0.00 | 0.00 | 0.00 | 84 | 1014.4 |
| 20260901034503 | 64 | 355 | 2.0 | 3.0 | 0.00 | 0.00 | 0.00 | 84 | 1014.4 |
| 20260901034303 | 64 | 67 | 2.0 | 2.0 | 0.00 | 0.00 | 0.00 | 84 | 1014.3 |
| 20260901034004 | 64 | 67 | 0.0 | 2.0 | 0.00 | 0.00 | 0.00 | 84 | 1014.2 |
| 20260901033904 | 65 | 68 | 0.0 | 3.0 | 0.00 | 0.00 | 0.00 | 84 | 1014.2 |
| 20260901033806 | 65 | 68 | 0.0 | 3.0 | 0.00 | 0.00 | 0.00 | 83 | 1014.2 |
| 20260901033703 | 65 | 68 | 1.0 | 3.0 | 0.00 | 0.00 | 0.00 | 83 | 1014.2 |
| 20260901033507 | 65 | 68 | 2.0 | 3.0 | 0.00 | 0.00 | 0.00 | 83 | 1014.2 |
| 20260901033304 | 65 | 68 | 1.0 | 3.0 | 0.00 | 0.00 | 0.00 | 83 | 1014.2 |
| 20260901033207 | 65 | 68 | 1.0 | 3.0 | 0.00 | 0.00 | 0.00 | 83 | 1014.2 |
| 20260901033104 | 65 | 68 | 1.0 | 3.0 | 0.00 | 0.00 | 0.00 | 83 | 1014.3 |
| 20260901033004 | 65 | 68 | 1.0 | 3.0 | 0.00 | 0.00 | 0.00 | 83 | 1014.2 |
| 20260901032906 | 65 | 68 | 2.0 | 3.0 | 0.00 | 0.00 | 0.00 | 83 | 1014.2 |
| 20260901032803 | 65 | 68 | 2.0 | 2.0 | 0.00 | 0.00 | 0.00 | 83 | 1014.2 |
| 20260901032703 | 65 | 68 | 1.0 | 2.0 | 0.00 | 0.00 | 0.00 | 82 | 1014.2 |
| 20260901032607 | 65 | 68 | 1.0 | 2.0 | 0.00 | 0.00 | 0.00 | 82 | 1014.2 |
| 20260901032503 | 65 | 68 | 1.0 | 2.0 | 0.00 | 0.00 | 0.00 | 82 | 1014.1 |
| 20260901032403 | 65 | 68 | 1.0 | 1.0 | 0.00 | 0.00 | 0.00 | 82 | 1014.1 |
| 20260901032307 | 65 | 68 | 0.0 | 2.0 | 0.00 | 0.00 | 0.00 | 81 | 1014.1 |
| 20260901032203 | 66 | 68 | 0.0 | 2.0 | 0.00 | 0.00 | 0.00 | 81 | 1014.0 |
| 20260901032103 | 66 | 67 | 0.0 | 3.0 | 0.00 | 0.00 | 0.00 | 81 | 1014.1 |
| 20260901032007 | 66 | 67 | 0.0 | 4.0 | 0.00 | 0.00 | 0.00 | 81 | 1014.1 |
| 20260901031904 | 66 | 68 | 0.0 | 4.0 | 0.00 | 0.00 | 0.00 | 81 | 1014.1 |
| 20260901031805 | 66 | 67 | 0.0 | 4.0 | 0.00 | 0.00 | 0.00 | 81 | 1014.1 |
| 20260901031604 | 66 | 67 | 0.0 | 4.0 | 0.00 | 0.00 | 0.00 | 81 | 1014.1 |
| 20260901031504 | 66 | 67 | 0.0 | 4.0 | 0.00 | 0.00 | 0.00 | 81 | 1014.1 |
| 20260901031406 | 66 | 68 | 0.0 | 4.0 | 0.00 | 0.00 | 0.00 | 81 | 1014.1 |
| 20260901031303 | 67 | 68 | 2.0 | 4.0 | 0.00 | 0.00 | 0.00 | 81 | 1014.1 |
| 20260901031204 | 67 | 68 | 1.0 | 4.0 | 0.00 | 0.00 | 0.00 | 80 | 1014.1 |
| 20260901031106 | 67 | 68 | 3.0 | 4.0 | 0.00 | 0.00 | 0.00 | 80 | 1014.1 |
| 20260901031004 | 67 | 68 | 3.0 | 4.0 | 0.00 | 0.00 | 0.00 | 80 | 1014.1 |
| 20260901030703 | 67 | 47 | 2.0 | 3.0 | 0.00 | 0.00 | 0.00 | 80 | 1014.0 |
| 20260901030604 | 67 | 47 | 2.0 | 3.0 | 0.00 | 0.00 | 0.00 | 80 | 1014.0 |
| 20260901030508 | 67 | 47 | 2.0 | 2.0 | 0.00 | 0.00 | 0.00 | 80 | 1014.0 |
| 20260901030404 | 67 | 47 | 1.0 | 2.0 | 0.00 | 0.00 | 0.00 | 79 | 1014.0 |
| 20260901030303 | 67 | 47 | 2.0 | 3.0 | 0.00 | 0.00 | 0.00 | 79 | 1013.9 |
| 20260901030206 | 68 | 47 | 1.0 | 3.0 | 0.00 | 0.00 | 0.00 | 79 | 1013.9 |
| 20260901030007 | 68 | 40 | 2.0 | 4.0 | 0.00 | 0.00 | 0.00 | 79 | 1013.9 |
| 20260901025906 | 68 | 40 | 2.0 | 4.0 | 0.00 | 0.00 | 0.00 | 79 | 1013.9 |
| 20260901025803 | 68 | 40 | 1.0 | 4.0 | 0.00 | 0.00 | 0.00 | 78 | 1013.9 |
| 20260901025703 | 68 | 40 | 1.0 | 4.0 | 0.00 | 0.00 | 0.00 | 78 | 1013.9 |
| 20260901025606 | 68 | 40 | 1.0 | 4.0 | 0.00 | 0.00 | 0.00 | 78 | 1013.9 |
| 20260901025505 | 68 | 40 | 1.0 | 4.0 | 0.00 | 0.00 | 0.00 | 78 | 1013.9 |
| 20260901025403 | 69 | 40 | 1.0 | 4.0 | 0.00 | 0.00 | 0.00 | 77 | 1013.9 |
| 20260901025307 | 69 | 40 | 2.0 | 4.0 | 0.00 | 0.00 | 0.00 | 78 | 1013.9 |
| 20260901025203 | 69 | 40 | 2.0 | 4.0 | 0.00 | 0.00 | 0.00 | 78 | 1013.9 |
| 20260901025103 | 69 | 40 | 3.0 | 4.0 | 0.00 | 0.00 | 0.00 | 77 | 1013.8 |
| 20260901025008 | 69 | 30 | 3.0 | 4.0 | 0.00 | 0.00 | 0.00 | 77 | 1013.8 |
| 20260901024903 | 69 | 30 | 3.0 | 4.0 | 0.00 | 0.00 | 0.00 | 77 | 1013.8 |
| 20260901024706 | 69 | 31 | 4.0 | 4.0 | 0.00 | 0.00 | 0.00 | 77 | 1013.8 |
| 20260901024604 | 69 | 29 | 3.0 | 5.0 | 0.00 | 0.00 | 0.00 | 77 | 1013.9 |
| 20260901024406 | 69 | 24 | 3.0 | 5.0 | 0.00 | 0.00 | 0.00 | 76 | 1013.8 |
| 20260901024303 | 69 | 29 | 4.0 | 5.0 | 0.00 | 0.00 | 0.00 | 76 | 1013.8 |
| 20260901024204 | 69 | 25 | 4.0 | 5.0 | 0.00 | 0.00 | 0.00 | 76 | 1013.8 |
| 20260901024107 | 69 | 21 | 2.0 | 5.0 | 0.00 | 0.00 | 0.00 | 76 | 1013.8 |
| 20260901024005 | 69 | 22 | 3.0 | 5.0 | 0.00 | 0.00 | 0.00 | 76 | 1013.8 |
| 20260901023806 | 69 | 25 | 1.0 | 5.0 | 0.00 | 0.00 | 0.00 | 77 | 1013.8 |
| 20260901023703 | 69 | 28 | 3.0 | 5.0 | 0.00 | 0.00 | 0.00 | 77 | 1013.8 |
| 20260901023604 | 69 | 30 | 4.0 | 5.0 | 0.00 | 0.00 | 0.00 | 77 | 1013.8 |
| 20260901023403 | 69 | 23 | 5.0 | 5.0 | 0.00 | 0.00 | 0.00 | 79 | 1013.8 |
| 20260901023206 | 68 | 34 | 4.0 | 5.0 | 0.00 | 0.00 | 0.00 | 79 | 1013.8 |
| 20260901023005 | 68 | 15 | 4.0 | 4.0 | 0.00 | 0.00 | 0.00 | 79 | 1013.8 |
| 20260901022906 | 68 | 22 | 3.0 | 4.0 | 0.00 | 0.00 | 0.00 | 78 | 1013.8 |
| 20260901022803 | 68 | 19 | 3.0 | 4.0 | 0.00 | 0.00 | 0.00 | 78 | 1013.8 |
| 20260901022703 | 68 | 34 | 2.0 | 4.0 | 0.00 | 0.00 | 0.00 | 78 | 1013.7 |
| 20260901022607 | 68 | 34 | 3.0 | 4.0 | 0.00 | 0.00 | 0.00 | 78 | 1013.7 |
| 20260901022503 | 68 | 34 | 4.0 | 4.0 | 0.00 | 0.00 | 0.00 | 78 | 1013.8 |
| 20260901022306 | 68 | 35 | 3.0 | 5.0 | 0.00 | 0.00 | 0.00 | 78 | 1013.8 |
| 20260901022103 | 68 | 35 | 1.0 | 6.0 | 0.00 | 0.00 | 0.00 | 77 | 1013.8 |
| 20260901022007 | 68 | 36 | 1.0 | 6.0 | 0.00 | 0.00 | 0.00 | 78 | 1013.8 |
| 20260901021903 | 68 | 36 | 3.0 | 6.0 | 0.00 | 0.00 | 0.00 | 78 | 1013.7 |
| 20260901021803 | 68 | 38 | 3.0 | 6.0 | 0.00 | 0.00 | 0.00 | 78 | 1013.7 |
| 20260901021706 | 68 | 38 | 2.0 | 6.0 | 0.00 | 0.00 | 0.00 | 78 | 1013.7 |
| 20260901021604 | 68 | 38 | 2.0 | 6.0 | 0.00 | 0.00 | 0.00 | 78 | 1013.7 |
| 20260901021406 | 67 | 38 | 4.0 | 6.0 | 0.00 | 0.00 | 0.00 | 79 | 1013.7 |
| 20260901021304 | 67 | 28 | 4.0 | 6.0 | 0.00 | 0.00 | 0.00 | 79 | 1013.7 |
| 20260901021203 | 67 | 34 | 4.0 | 5.0 | 0.00 | 0.00 | 0.00 | 79 | 1013.6 |
| 20260901021004 | 67 | 54 | 3.0 | 5.0 | 0.00 | 0.00 | 0.00 | 80 | 1013.6 |
| 20260901020805 | 67 | 36 | 4.0 | 4.0 | 0.00 | 0.00 | 0.00 | 80 | 1013.6 |
| 20260901020703 | 67 | 32 | 3.0 | 4.0 | 0.00 | 0.00 | 0.00 | 80 | 1013.6 |
| 20260901020603 | 67 | 32 | 1.0 | 3.0 | 0.00 | 0.00 | 0.00 | 79 | 1013.6 |
| 20260901020506 | 67 | 32 | 3.0 | 4.0 | 0.00 | 0.00 | 0.00 | 79 | 1013.6 |
| 20260901020403 | 67 | 32 | 2.0 | 4.0 | 0.00 | 0.00 | 0.00 | 79 | 1013.6 |
| 20260901020303 | 67 | 32 | 2.0 | 4.0 | 0.00 | 0.00 | 0.00 | 79 | 1013.6 |
| 20260901020116 | 68 | 23 | 2.0 | 4.0 | 0.00 | 0.00 | 0.00 | 79 | 1013.5 |
| 20260901020006 | 68 | 24 | 2.0 | 4.0 | 0.00 | 0.00 | 0.00 | 79 | 1013.6 |
| 20260901015907 | 68 | 32 | 2.0 | 4.0 | 0.00 | 0.00 | 0.00 | 79 | 1013.6 |
| 20260901015703 | 68 | 22 | 3.0 | 4.0 | 0.00 | 0.00 | 0.00 | 78 | 1013.6 |
| 20260901015607 | 68 | 22 | 3.0 | 4.0 | 0.00 | 0.00 | 0.00 | 78 | 1013.6 |
| 20260901015504 | 68 | 177 | 2.0 | 2.0 | 0.00 | 0.00 | 0.00 | 78 | 1013.5 |
| 20260901015403 | 68 | 177 | 1.0 | 2.0 | 0.00 | 0.00 | 0.00 | 77 | 1013.5 |
| 20260901015307 | 68 | 177 | 1.0 | 2.0 | 0.00 | 0.00 | 0.00 | 78 | 1013.6 |
| 20260901015203 | 68 | 177 | 1.0 | 2.0 | 0.00 | 0.00 | 0.00 | 77 | 1013.6 |
| 20260901015103 | 68 | 177 | 1.0 | 2.0 | 0.00 | 0.00 | 0.00 | 77 | 1013.6 |
| 20260901015006 | 68 | 177 | 1.0 | 2.0 | 0.00 | 0.00 | 0.00 | 77 | 1013.5 |
| 20260901014903 | 68 | 177 | 1.0 | 2.0 | 0.00 | 0.00 | 0.00 | 77 | 1013.6 |
| 20260901014803 | 68 | 177 | 0.0 | 2.0 | 0.00 | 0.00 | 0.00 | 76 | 1013.6 |
| 20260901014706 | 68 | 177 | 0.0 | 2.0 | 0.00 | 0.00 | 0.00 | 76 | 1013.6 |
| 20260901014503 | 68 | 177 | 1.0 | 2.0 | 0.00 | 0.00 | 0.00 | 76 | 1013.6 |
| 20260901014406 | 68 | 177 | 2.0 | 2.0 | 0.00 | 0.00 | 0.00 | 76 | 1013.6 |
| 20260901014303 | 69 | 177 | 0.0 | 2.0 | 0.00 | 0.00 | 0.00 | 76 | 1013.6 |
| 20260901014203 | 69 | 177 | 0.0 | 2.0 | 0.00 | 0.00 | 0.00 | 76 | 1013.6 |
| 20260901014108 | 69 | 177 | 0.0 | 2.0 | 0.00 | 0.00 | 0.00 | 76 | 1013.6 |
| 20260901013903 | 69 | 177 | 0.0 | 2.0 | 0.00 | 0.00 | 0.00 | 76 | 1013.5 |
| 20260901013806 | 69 | 177 | 1.0 | 2.0 | 0.00 | 0.00 | 0.00 | 76 | 1013.6 |
| 20260901013704 | 69 | 177 | 1.0 | 2.0 | 0.00 | 0.00 | 0.00 | 76 | 1013.6 |
| 20260901013507 | 69 | 177 | 1.0 | 4.0 | 0.00 | 0.00 | 0.00 | 76 | 1013.6 |
| 20260901013403 | 69 | 177 | 1.0 | 4.0 | 0.00 | 0.00 | 0.00 | 76 | 1013.6 |
| 20260901013303 | 69 | 186 | 1.0 | 4.0 | 0.00 | 0.00 | 0.00 | 75 | 1013.6 |
| 20260901013206 | 69 | 186 | 0.0 | 4.0 | 0.00 | 0.00 | 0.00 | 75 | 1013.6 |
| 20260901013104 | 69 | 186 | 1.0 | 4.0 | 0.00 | 0.00 | 0.00 | 75 | 1013.7 |
| 20260901012906 | 69 | 186 | 1.0 | 4.0 | 0.00 | 0.00 | 0.00 | 74 | 1013.6 |
| 20260901012803 | 69 | 186 | 2.0 | 4.0 | 0.00 | 0.00 | 0.00 | 74 | 1013.6 |
| 20260901012703 | 69 | 186 | 1.0 | 4.0 | 0.00 | 0.00 | 0.00 | 74 | 1013.6 |
| 20260901012503 | 69 | 186 | 0.0 | 3.0 | 0.00 | 0.00 | 0.00 | 74 | 1013.6 |
| 20260901012403 | 69 | 186 | 0.0 | 3.0 | 0.00 | 0.00 | 0.00 | 74 | 1013.5 |
| 20260901012306 | 70 | 186 | 0.0 | 3.0 | 0.00 | 0.00 | 0.00 | 74 | 1013.5 |
| 20260901012204 | 70 | 186 | 0.0 | 3.0 | 0.00 | 0.00 | 0.00 | 73 | 1013.6 |
| 20260901012104 | 70 | 186 | 0.0 | 3.0 | 0.00 | 0.00 | 0.00 | 73 | 1013.5 |
| 20260901011903 | 70 | 186 | 0.0 | 3.0 | 0.00 | 0.00 | 0.00 | 73 | 1013.6 |
| 20260901011803 | 70 | 186 | 0.0 | 3.0 | 0.00 | 0.00 | 0.00 | 73 | 1013.6 |
| 20260901011706 | 70 | 186 | 0.0 | 3.0 | 0.00 | 0.00 | 0.00 | 72 | 1013.6 |
| 20260901011604 | 70 | 186 | 0.0 | 3.0 | 0.00 | 0.00 | 0.00 | 72 | 1013.6 |
| 20260901011406 | 71 | 125 | 0.0 | 3.0 | 0.00 | 0.00 | 0.00 | 72 | 1013.5 |
| 20260901011304 | 71 | 125 | 0.0 | 3.0 | 0.00 | 0.00 | 0.00 | 72 | 1013.6 |
| 20260901011005 | 71 | 125 | 1.0 | 3.0 | 0.00 | 0.00 | 0.00 | 71 | 1013.6 |
| 20260901010903 | 71 | 125 | 2.0 | 5.0 | 0.00 | 0.00 | 0.00 | 71 | 1013.5 |
| 20260901010807 | 71 | 125 | 1.0 | 5.0 | 0.00 | 0.00 | 0.00 | 71 | 1013.6 |
| 20260901010605 | 71 | 125 | 1.0 | 5.0 | 0.00 | 0.00 | 0.00 | 70 | 1013.5 |
| 20260901010506 | 71 | 125 | 2.0 | 5.0 | 0.00 | 0.00 | 0.00 | 70 | 1013.5 |
| 20260901010403 | 72 | 125 | 1.0 | 5.0 | 0.00 | 0.00 | 0.00 | 70 | 1013.5 |
| 20260901010205 | 72 | 101 | 3.0 | 5.0 | 0.00 | 0.00 | 0.00 | 70 | 1013.5 |
| 20260901010104 | 72 | 94 | 3.0 | 5.0 | 0.00 | 0.00 | 0.00 | 70 | 1013.5 |
| 20260901010007 | 72 | 94 | 3.0 | 5.0 | 0.00 | 0.00 | 0.00 | 69 | 1013.5 |
| 20260901005906 | 72 | 92 | 3.0 | 5.0 | 0.00 | 0.00 | 0.00 | 68 | 1013.5 |
| 20260901005803 | 72 | 59 | 3.0 | 5.0 | 0.00 | 0.00 | 0.00 | 68 | 1013.5 |
| 20260901005703 | 72 | 42 | 3.0 | 5.0 | 0.00 | 0.00 | 0.00 | 68 | 1013.4 |
| 20260901005606 | 72 | 34 | 4.0 | 5.0 | 0.00 | 0.00 | 0.00 | 68 | 1013.4 |
| 20260901005505 | 73 | 54 | 4.0 | 5.0 | 0.00 | 0.00 | 0.00 | 67 | 1013.4 |
| 20260901005403 | 73 | 63 | 3.0 | 4.0 | 0.00 | 0.00 | 0.00 | 67 | 1013.4 |
| 20260901005307 | 73 | 63 | 1.0 | 4.0 | 0.00 | 0.00 | 0.00 | 67 | 1013.4 |
| 20260901005203 | 73 | 51 | 0.0 | 4.0 | 0.00 | 0.00 | 0.00 | 66 | 1013.4 |
| 20260901005103 | 73 | 51 | 0.0 | 4.0 | 0.00 | 0.00 | 0.00 | 66 | 1013.4 |
| 20260901005006 | 73 | 51 | 0.0 | 4.0 | 0.00 | 0.00 | 0.00 | 66 | 1013.3 |
| 20260901004903 | 74 | 51 | 0.0 | 4.0 | 0.00 | 0.00 | 0.00 | 66 | 1013.3 |
| 20260901004803 | 74 | 51 | 0.0 | 4.0 | 0.00 | 0.00 | 0.00 | 65 | 1013.3 |
| 20260901004706 | 74 | 51 | 1.0 | 4.0 | 0.00 | 0.00 | 0.00 | 65 | 1013.3 |
| 20260901004603 | 74 | 51 | 2.0 | 4.0 | 0.00 | 0.00 | 0.00 | 65 | 1013.3 |
| 20260901004503 | 74 | 51 | 4.0 | 5.0 | 0.00 | 0.00 | 0.00 | 65 | 1013.3 |
| 20260901004406 | 74 | 51 | 3.0 | 5.0 | 0.00 | 0.00 | 0.00 | 64 | 1013.3 |
| 20260901004304 | 74 | 51 | 3.0 | 5.0 | 0.00 | 0.00 | 0.00 | 64 | 1013.3 |
| 20260901004105 | 74 | 55 | 3.0 | 7.0 | 0.00 | 0.00 | 0.00 | 63 | 1013.2 |
| 20260901004004 | 75 | 56 | 4.0 | 7.0 | 0.00 | 0.00 | 0.00 | 63 | 1013.3 |
| 20260901003903 | 75 | 69 | 3.0 | 7.0 | 0.00 | 0.00 | 0.00 | 63 | 1013.2 |
| 20260901003806 | 75 | 69 | 4.0 | 7.0 | 0.00 | 0.00 | 0.00 | 62 | 1013.2 |
| 20260901003703 | 75 | 74 | 4.0 | 7.0 | 0.00 | 0.00 | 0.00 | 62 | 1013.3 |
| 20260901003603 | 75 | 73 | 3.0 | 7.0 | 0.00 | 0.00 | 0.00 | 62 | 1013.2 |
| 20260901003403 | 76 | 69 | 4.0 | 7.0 | 0.00 | 0.00 | 0.00 | 61 | 1013.2 |
| 20260901003303 | 76 | 67 | 3.0 | 7.0 | 0.00 | 0.00 | 0.00 | 61 | 1013.2 |
| 20260901003206 | 76 | 62 | 5.0 | 7.0 | 0.00 | 0.00 | 0.00 | 60 | 1013.2 |
| 20260901003104 | 77 | 77 | 4.0 | 7.0 | 0.00 | 0.00 | 0.00 | 60 | 1013.2 |
| 20260901003004 | 77 | 66 | 2.0 | 7.0 | 0.00 | 0.00 | 0.00 | 60 | 1013.2 |
| 20260901002906 | 77 | 69 | 2.0 | 7.0 | 0.00 | 0.00 | 0.00 | 60 | 1013.1 |
| 20260901002803 | 77 | 65 | 4.0 | 8.0 | 0.00 | 0.00 | 0.00 | 61 | 1013.1 |
| 20260901002703 | 77 | 77 | 3.0 | 8.0 | 0.00 | 0.00 | 0.00 | 60 | 1013.1 |
| 20260901002606 | 78 | 192 | 1.0 | 8.0 | 0.00 | 0.00 | 0.00 | 60 | 1013.2 |
| 20260901002503 | 78 | 210 | 2.0 | 8.0 | 0.00 | 0.00 | 0.00 | 60 | 1013.1 |
| 20260901002404 | 78 | 171 | 2.0 | 8.0 | 0.00 | 0.00 | 0.00 | 60 | 1013.1 |
| 20260901002307 | 78 | 238 | 3.0 | 10.0 | 0.00 | 0.00 | 0.00 | 60 | 1013.1 |
| 20260901002105 | 78 | 181 | 7.0 | 10.0 | 0.00 | 0.00 | 0.00 | 59 | 1013.1 |
| 20260901002007 | 78 | 194 | 3.0 | 10.0 | 0.00 | 0.00 | 0.00 | 59 | 1013.1 |
| 20260901001903 | 78 | 190 | 5.0 | 10.0 | 0.00 | 0.00 | 0.00 | 59 | 1013.0 |
| 20260901001803 | 78 | 194 | 5.0 | 11.0 | 0.00 | 0.00 | 0.00 | 59 | 1013.0 |
| 20260901001706 | 78 | 194 | 7.0 | 11.0 | 0.00 | 0.00 | 0.00 | 59 | 1013.0 |
| 20260901001604 | 78 | 188 | 5.0 | 11.0 | 0.00 | 0.00 | 0.00 | 59 | 1013.0 |
| 20260901001504 | 78 | 232 | 5.0 | 11.0 | 0.00 | 0.00 | 0.00 | 59 | 1013.1 |
| 20260901001405 | 78 | 228 | 8.0 | 11.0 | 0.00 | 0.00 | 0.00 | 59 | 1013.1 |
| 20260901001303 | 78 | 233 | 10.0 | 11.0 | 0.00 | 0.00 | 0.00 | 59 | 1013.1 |
| 20260901001203 | 78 | 229 | 9.0 | 11.0 | 0.00 | 0.00 | 0.00 | 59 | 1013.1 |
| 20260901001107 | 78 | 193 | 6.0 | 11.0 | 0.00 | 0.00 | 0.00 | 59 | 1013.1 |
| 20260901001004 | 78 | 216 | 6.0 | 11.0 | 0.00 | 0.00 | 0.00 | 59 | 1013.0 |
| 20260901000903 | 78 | 217 | 7.0 | 12.0 | 0.00 | 0.00 | 0.00 | 59 | 1013.1 |
| 20260901000703 | 78 | 230 | 8.0 | 12.0 | 0.00 | 0.00 | 0.00 | 59 | 1013.0 |
| 20260901000506 | 78 | 234 | 8.0 | 12.0 | 0.00 | 0.00 | 0.00 | 59 | 1013.0 |
| 20260901000405 | 78 | 223 | 7.0 | 12.0 | 0.00 | 0.00 | 0.00 | 59 | 1013.0 |
| 20260901000303 | 78 | 201 | 6.0 | 12.0 | 0.00 | 0.00 | 0.00 | 59 | 1013.0 |
| 20260901000206 | 78 | 234 | 9.0 | 12.0 | 0.00 | 0.00 | 0.00 | 59 | 1013.0 |
| 20260901000125 | 78 | 221 | 9.0 | 12.0 | 0.00 | 0.00 | 0.00 | 59 | 1013.0 |
| 20260901000006 | 78 | 244 | 7.0 | 12.0 | 0.00 | 0.00 | 0.00 | 59 | 1013.0 |
| 20260831235906 | 78 | 241 | 11.0 | 12.0 | 0.00 | 0.00 | 0.00 | 59 | 1013.0 |
| 20260831235804 | 78 | 236 | 9.0 | 11.0 | 0.00 | 0.00 | 0.00 | 59 | 1013.0 |
| 20260831235606 | 78 | 215 | 3.0 | 11.0 | 0.00 | 0.00 | 0.00 | 59 | 1013.0 |
| 20260831235503 | 78 | 246 | 4.0 | 11.0 | 0.00 | 0.00 | 0.00 | 59 | 1013.0 |
| 20260831235403 | 78 | 242 | 7.0 | 11.0 | 0.00 | 0.00 | 0.00 | 59 | 1013.0 |
| 20260831235306 | 78 | 227 | 8.0 | 11.0 | 0.00 | 0.00 | 0.00 | 59 | 1013.0 |
| 20260831235203 | 78 | 225 | 4.0 | 10.0 | 0.00 | 0.00 | 0.00 | 59 | 1012.9 |
| 20260831235103 | 78 | 220 | 6.0 | 10.0 | 0.00 | 0.00 | 0.00 | 59 | 1012.9 |
| 20260831235007 | 78 | 242 | 7.0 | 10.0 | 0.00 | 0.00 | 0.00 | 59 | 1012.9 |
| 20260831234903 | 78 | 234 | 7.0 | 10.0 | 0.00 | 0.00 | 0.00 | 59 | 1012.9 |
| 20260831234805 | 78 | 235 | 8.0 | 10.0 | 0.00 | 0.00 | 0.00 | 59 | 1012.9 |
| 20260831234708 | 78 | 246 | 6.0 | 10.0 | 0.00 | 0.00 | 0.00 | 59 | 1012.9 |
| 20260831234603 | 78 | 234 | 8.0 | 10.0 | 0.00 | 0.00 | 0.00 | 59 | 1012.9 |
| 20260831234503 | 78 | 209 | 7.0 | 10.0 | 0.00 | 0.00 | 0.00 | 59 | 1012.9 |
| 20260831234405 | 78 | 211 | 6.0 | 10.0 | 0.00 | 0.00 | 0.00 | 58 | 1012.9 |
| 20260831234303 | 78 | 221 | 5.0 | 10.0 | 0.00 | 0.00 | 0.00 | 58 | 1012.9 |
| 20260831234203 | 78 | 213 | 7.0 | 10.0 | 0.00 | 0.00 | 0.00 | 58 | 1012.9 |
| 20260831234003 | 78 | 229 | 4.0 | 10.0 | 0.00 | 0.00 | 0.00 | 58 | 1012.9 |
| 20260831233905 | 78 | 225 | 6.0 | 10.0 | 0.00 | 0.00 | 0.00 | 58 | 1012.9 |
| 20260831233805 | 78 | 212 | 4.0 | 10.0 | 0.00 | 0.00 | 0.00 | 58 | 1013.0 |
| 20260831233703 | 78 | 222 | 8.0 | 10.0 | 0.00 | 0.00 | 0.00 | 58 | 1012.9 |
| 20260831233603 | 78 | 210 | 7.0 | 9.0 | 0.00 | 0.00 | 0.00 | 58 | 1012.9 |
| 20260831233506 | 78 | 211 | 7.0 | 9.0 | 0.00 | 0.00 | 0.00 | 58 | 1012.9 |
| 20260831233403 | 78 | 192 | 4.0 | 9.0 | 0.00 | 0.00 | 0.00 | 58 | 1013.0 |
| 20260831233303 | 78 | 220 | 6.0 | 9.0 | 0.00 | 0.00 | 0.00 | 58 | 1012.9 |
| 20260831233205 | 78 | 221 | 8.0 | 9.0 | 0.00 | 0.00 | 0.00 | 57 | 1012.8 |
| 20260831233004 | 78 | 219 | 6.0 | 9.0 | 0.00 | 0.00 | 0.00 | 57 | 1012.9 |
| 20260831232907 | 78 | 202 | 7.0 | 10.0 | 0.00 | 0.00 | 0.00 | 57 | 1012.8 |
| 20260831232804 | 78 | 209 | 6.0 | 10.0 | 0.00 | 0.00 | 0.00 | 57 | 1012.8 |
| 20260831232703 | 78 | 183 | 7.0 | 9.0 | 0.00 | 0.00 | 0.00 | 57 | 1012.8 |
| 20260831232606 | 78 | 200 | 6.0 | 9.0 | 0.00 | 0.00 | 0.00 | 57 | 1012.8 |
| 20260831232503 | 78 | 215 | 5.0 | 10.0 | 0.00 | 0.00 | 0.00 | 57 | 1012.8 |
| 20260831232403 | 78 | 202 | 7.0 | 10.0 | 0.00 | 0.00 | 0.00 | 57 | 1012.8 |
| 20260831232203 | 78 | 200 | 6.0 | 10.0 | 0.00 | 0.00 | 0.00 | 57 | 1012.8 |
| 20260831232103 | 78 | 200 | 6.0 | 10.0 | 0.00 | 0.00 | 0.00 | 57 | 1012.8 |
| 20260831232007 | 79 | 195 | 6.0 | 10.0 | 0.00 | 0.00 | 0.00 | 56 | 1012.8 |
| 20260831231904 | 79 | 196 | 5.0 | 10.0 | 0.00 | 0.00 | 0.00 | 57 | 1012.8 |
| 20260831231803 | 79 | 217 | 7.0 | 10.0 | 0.00 | 0.00 | 0.00 | 57 | 1012.8 |
| 20260831231706 | 79 | 206 | 7.0 | 10.0 | 0.00 | 0.00 | 0.00 | 57 | 1012.8 |
| 20260831231503 | 78 | 221 | 9.0 | 11.0 | 0.00 | 0.00 | 0.00 | 56 | 1012.8 |
| 20260831231406 | 78 | 194 | 8.0 | 11.0 | 0.00 | 0.00 | 0.00 | 56 | 1012.7 |
| 20260831231304 | 78 | 219 | 7.0 | 10.0 | 0.00 | 0.00 | 0.00 | 56 | 1012.7 |
| 20260831231204 | 78 | 232 | 7.0 | 10.0 | 0.00 | 0.00 | 0.00 | 56 | 1012.8 |
| 20260831231004 | 78 | 225 | 6.0 | 11.0 | 0.00 | 0.00 | 0.00 | 56 | 1012.8 |
| 20260831230704 | 78 | 232 | 8.0 | 15.0 | 0.00 | 0.00 | 0.00 | 56 | 1012.7 |
| 20260831230603 | 78 | 227 | 7.0 | 15.0 | 0.00 | 0.00 | 0.00 | 56 | 1012.6 |
| 20260831230305 | 78 | 220 | 5.0 | 15.0 | 0.00 | 0.00 | 0.00 | 56 | 1012.6 |
| 20260831230206 | 78 | 215 | 7.0 | 15.0 | 0.00 | 0.00 | 0.00 | 56 | 1012.7 |